| time (UTC) | temp F | wind direction | speed MPH | gust MPH | rain 1hr in | rain 24hr in | rain mn in | humidity % | barometer mb |
| 20260506135306 | 61 | 350 | 3.0 | 6.0 | 0.00 | 0.07 | 0.07 | 77 | 1015.9 |
| 20260506135203 | 61 | 349 | 3.0 | 7.0 | 0.00 | 0.07 | 0.07 | 77 | 1015.8 |
| 20260506135103 | 61 | 348 | 3.0 | 7.0 | 0.00 | 0.07 | 0.07 | 78 | 1015.9 |
| 20260506135003 | 60 | 347 | 3.0 | 7.0 | 0.00 | 0.07 | 0.07 | 79 | 1015.9 |
| 20260506134903 | 60 | 348 | 3.0 | 7.0 | 0.00 | 0.07 | 0.07 | 79 | 1015.8 |
| 20260506134803 | 60 | 343 | 3.0 | 7.0 | 0.00 | 0.07 | 0.07 | 79 | 1016.0 |
| 20260506134703 | 59 | 337 | 3.0 | 7.0 | 0.00 | 0.07 | 0.07 | 79 | 1015.8 |
| 20260506134624 | 59 | 336 | 3.0 | 7.0 | 0.00 | 0.07 | 0.07 | 78 | 1015.8 |
| 20260506134503 | 60 | 336 | 2.0 | 7.0 | 0.00 | 0.07 | 0.07 | 78 | 1015.9 |
| 20260506134403 | 60 | 333 | 2.0 | 7.0 | 0.00 | 0.07 | 0.07 | 78 | 1015.8 |
| 20260506134303 | 60 | 334 | 2.0 | 7.0 | 0.00 | 0.07 | 0.07 | 78 | 1015.8 |
| 20260506134204 | 60 | 339 | 2.0 | 4.0 | 0.00 | 0.07 | 0.07 | 78 | 1015.8 |
| 20260506134103 | 60 | 341 | 2.0 | 4.0 | 0.00 | 0.07 | 0.07 | 78 | 1015.8 |
| 20260506134025 | 60 | 341 | 2.0 | 4.0 | 0.00 | 0.07 | 0.07 | 78 | 1015.8 |
| 20260506133903 | 60 | 347 | 2.0 | 4.0 | 0.00 | 0.07 | 0.07 | 78 | 1015.8 |
| 20260506133803 | 60 | 351 | 2.0 | 4.0 | 0.00 | 0.07 | 0.07 | 78 | 1016.0 |
| 20260506133724 | 60 | 351 | 2.0 | 4.0 | 0.00 | 0.07 | 0.07 | 78 | 1016.0 |
| 20260506133603 | 60 | 355 | 2.0 | 4.0 | 0.00 | 0.07 | 0.07 | 78 | 1016.0 |
| 20260506133503 | 59 | 359 | 2.0 | 4.0 | 0.00 | 0.07 | 0.07 | 78 | 1015.9 |
| 20260506133403 | 59 | 1 | 2.0 | 4.0 | 0.00 | 0.07 | 0.07 | 77 | 1015.8 |
| 20260506133303 | 60 | 1 | 2.0 | 4.0 | 0.00 | 0.07 | 0.07 | 77 | 1015.9 |
| 20260506133203 | 60 | 360 | 2.0 | 4.0 | 0.00 | 0.07 | 0.07 | 77 | 1015.8 |
| 20260506133103 | 60 | 1 | 2.0 | 6.0 | 0.00 | 0.07 | 0.07 | 77 | 1015.8 |
| 20260506133003 | 60 | 360 | 2.0 | 6.0 | 0.00 | 0.07 | 0.07 | 77 | 1015.8 |
| 20260506132903 | 60 | 2 | 2.0 | 6.0 | 0.00 | 0.07 | 0.07 | 76 | 1015.9 |
| 20260506132803 | 60 | 2 | 2.0 | 6.0 | 0.00 | 0.07 | 0.07 | 76 | 1015.9 |
| 20260506132703 | 60 | 5 | 2.0 | 6.0 | 0.00 | 0.07 | 0.07 | 76 | 1015.8 |
| 20260506132624 | 60 | 5 | 2.0 | 6.0 | 0.00 | 0.07 | 0.07 | 76 | 1015.9 |
| 20260506132503 | 60 | 6 | 2.0 | 6.0 | 0.00 | 0.07 | 0.07 | 76 | 1015.9 |
| 20260506132403 | 60 | 359 | 2.0 | 6.0 | 0.00 | 0.07 | 0.07 | 76 | 1015.9 |
| 20260506132306 | 60 | 347 | 2.0 | 6.0 | 0.00 | 0.07 | 0.07 | 76 | 1015.8 |
| 20260506132203 | 60 | 348 | 2.0 | 6.0 | 0.00 | 0.07 | 0.07 | 76 | 1016.0 |
| 20260506132103 | 60 | 345 | 2.0 | 6.0 | 0.00 | 0.07 | 0.07 | 78 | 1015.9 |
| 20260506132003 | 60 | 345 | 2.0 | 6.0 | 0.00 | 0.07 | 0.07 | 79 | 1015.9 |
| 20260506131903 | 60 | 343 | 2.0 | 6.0 | 0.00 | 0.07 | 0.07 | 79 | 1015.9 |
| 20260506131803 | 60 | 345 | 3.0 | 6.0 | 0.00 | 0.07 | 0.07 | 78 | 1015.8 |
| 20260506131724 | 60 | 345 | 3.0 | 6.0 | 0.00 | 0.07 | 0.07 | 78 | 1015.8 |
| 20260506131603 | 60 | 343 | 3.0 | 7.0 | 0.00 | 0.07 | 0.07 | 79 | 1015.8 |
| 20260506131503 | 60 | 343 | 3.0 | 7.0 | 0.00 | 0.07 | 0.07 | 79 | 1015.8 |
| 20260506131403 | 60 | 342 | 3.0 | 7.0 | 0.00 | 0.07 | 0.07 | 79 | 1015.9 |
| 20260506131303 | 60 | 349 | 3.0 | 7.0 | 0.00 | 0.07 | 0.07 | 79 | 1016.0 |
| 20260506131203 | 60 | 354 | 3.0 | 7.0 | 0.00 | 0.07 | 0.07 | 79 | 1015.8 |
| 20260506131103 | 59 | 355 | 3.0 | 7.0 | 0.00 | 0.07 | 0.07 | 79 | 1015.9 |
| 20260506131003 | 59 | 358 | 4.0 | 7.0 | 0.00 | 0.07 | 0.07 | 78 | 1016.0 |
| 20260506130903 | 59 | 358 | 4.0 | 7.0 | 0.00 | 0.07 | 0.07 | 78 | 1015.9 |
| 20260506130824 | 59 | 360 | 4.0 | 7.0 | 0.00 | 0.07 | 0.07 | 78 | 1015.9 |
| 20260506130703 | 59 | 359 | 3.0 | 7.0 | 0.00 | 0.07 | 0.07 | 79 | 1015.9 |
| 20260506130603 | 60 | 360 | 3.0 | 7.0 | 0.00 | 0.07 | 0.07 | 78 | 1015.9 |
| 20260506130503 | 60 | 3 | 3.0 | 7.0 | 0.00 | 0.07 | 0.07 | 78 | 1016.0 |
| 20260506130403 | 60 | 3 | 3.0 | 7.0 | 0.00 | 0.07 | 0.07 | 78 | 1015.8 |
| 20260506130303 | 60 | 360 | 3.0 | 7.0 | 0.00 | 0.07 | 0.07 | 78 | 1015.9 |
| 20260506130204 | 60 | 5 | 3.0 | 7.0 | 0.00 | 0.07 | 0.07 | 78 | 1015.9 |
| 20260506130103 | 60 | 3 | 2.0 | 7.0 | 0.00 | 0.07 | 0.07 | 77 | 1015.9 |
| 20260506130003 | 60 | 2 | 2.0 | 4.0 | 0.00 | 0.07 | 0.07 | 77 | 1015.9 |
| 20260506125903 | 60 | 2 | 2.0 | 4.0 | 0.00 | 0.07 | 0.07 | 77 | 1015.9 |
| 20260506125824 | 60 | 2 | 2.0 | 4.0 | 0.00 | 0.07 | 0.07 | 77 | 1015.9 |
| 20260506125703 | 60 | 3 | 2.0 | 4.0 | 0.00 | 0.07 | 0.07 | 77 | 1016.0 |
| 20260506125603 | 60 | 2 | 2.0 | 4.0 | 0.00 | 0.07 | 0.07 | 76 | 1015.8 |
| 20260506125524 | 60 | 2 | 2.0 | 4.0 | 0.00 | 0.07 | 0.07 | 76 | 1015.8 |
| 20260506125403 | 60 | 3 | 2.0 | 4.0 | 0.00 | 0.07 | 0.07 | 76 | 1016.0 |
| 20260506125305 | 60 | 2 | 2.0 | 4.0 | 0.00 | 0.07 | 0.07 | 76 | 1016.1 |
| 20260506125203 | 60 | 6 | 2.0 | 7.0 | 0.00 | 0.07 | 0.07 | 76 | 1016.0 |
| 20260506125103 | 60 | 4 | 2.0 | 7.0 | 0.00 | 0.07 | 0.07 | 75 | 1016.0 |
| 20260506125003 | 60 | 4 | 2.0 | 7.0 | 0.00 | 0.07 | 0.07 | 75 | 1016.0 |
| 20260506124903 | 60 | 5 | 3.0 | 7.0 | 0.00 | 0.07 | 0.07 | 76 | 1015.9 |
| 20260506124803 | 60 | 3 | 3.0 | 7.0 | 0.00 | 0.07 | 0.07 | 76 | 1016.1 |
| 20260506124703 | 60 | 358 | 2.0 | 7.0 | 0.00 | 0.07 | 0.07 | 78 | 1016.0 |
| 20260506124603 | 60 | 358 | 3.0 | 7.0 | 0.00 | 0.07 | 0.07 | 77 | 1016.1 |
| 20260506124503 | 60 | 358 | 3.0 | 7.0 | 0.00 | 0.07 | 0.07 | 76 | 1016.1 |
| 20260506124403 | 60 | 357 | 2.0 | 7.0 | 0.00 | 0.07 | 0.07 | 77 | 1015.9 |
| 20260506124303 | 60 | 357 | 2.0 | 7.0 | 0.00 | 0.07 | 0.07 | 77 | 1015.9 |
| 20260506124203 | 60 | 353 | 2.0 | 7.0 | 0.00 | 0.07 | 0.07 | 75 | 1016.1 |
| 20260506124103 | 60 | 348 | 2.0 | 7.0 | 0.00 | 0.07 | 0.07 | 75 | 1016.0 |
| 20260506124002 | 60 | 348 | 2.0 | 6.0 | 0.00 | 0.07 | 0.07 | 75 | 1016.1 |
| 20260506123902 | 60 | 347 | 2.0 | 6.0 | 0.00 | 0.07 | 0.07 | 75 | 1016.1 |
| 20260506123802 | 61 | 338 | 2.0 | 3.0 | 0.00 | 0.07 | 0.07 | 75 | 1015.9 |
| 20260506123702 | 61 | 344 | 2.0 | 4.0 | 0.00 | 0.07 | 0.07 | 75 | 1016.2 |
| 20260506123603 | 61 | 354 | 2.0 | 7.0 | 0.00 | 0.07 | 0.07 | 75 | 1016.1 |
| 20260506123502 | 61 | 355 | 2.0 | 7.0 | 0.00 | 0.07 | 0.07 | 75 | 1016.0 |
| 20260506123424 | 60 | 355 | 2.0 | 7.0 | 0.00 | 0.07 | 0.07 | 74 | 1016.2 |
| 20260506123302 | 61 | 355 | 3.0 | 7.0 | 0.00 | 0.07 | 0.07 | 74 | 1016.2 |
| 20260506123224 | 61 | 355 | 3.0 | 7.0 | 0.00 | 0.07 | 0.07 | 74 | 1016.2 |
| 20260506123102 | 61 | 5 | 3.0 | 7.0 | 0.00 | 0.07 | 0.07 | 73 | 1016.2 |
| 20260506123002 | 61 | 2 | 3.0 | 7.0 | 0.00 | 0.07 | 0.07 | 74 | 1016.0 |
| 20260506122902 | 61 | 2 | 3.0 | 7.0 | 0.00 | 0.07 | 0.07 | 73 | 1016.1 |
| 20260506122823 | 61 | 2 | 3.0 | 7.0 | 0.00 | 0.07 | 0.07 | 73 | 1016.1 |
| 20260506122702 | 61 | 5 | 3.0 | 7.0 | 0.00 | 0.07 | 0.07 | 74 | 1016.0 |
| 20260506122602 | 61 | 5 | 3.0 | 7.0 | 0.00 | 0.07 | 0.07 | 72 | 1016.1 |
| 20260506122502 | 60 | 4 | 3.0 | 6.0 | 0.00 | 0.07 | 0.07 | 72 | 1016.2 |
| 20260506122402 | 60 | 4 | 3.0 | 6.0 | 0.00 | 0.07 | 0.07 | 72 | 1016.1 |
| 20260506122305 | 60 | 4 | 3.0 | 6.0 | 0.00 | 0.07 | 0.07 | 72 | 1016.3 |
| 20260506122203 | 60 | 2 | 3.0 | 6.0 | 0.00 | 0.07 | 0.07 | 73 | 1016.2 |
| 20260506122103 | 61 | 360 | 3.0 | 6.0 | 0.00 | 0.07 | 0.07 | 73 | 1016.2 |
| 20260506122002 | 61 | 359 | 2.0 | 6.0 | 0.00 | 0.07 | 0.07 | 73 | 1016.0 |
| 20260506121903 | 61 | 5 | 2.0 | 6.0 | 0.00 | 0.07 | 0.07 | 73 | 1016.1 |
| 20260506121802 | 62 | 5 | 2.0 | 6.0 | 0.00 | 0.07 | 0.07 | 75 | 1016.2 |
| 20260506121702 | 62 | 5 | 2.0 | 6.0 | 0.00 | 0.07 | 0.07 | 76 | 1016.1 |
| 20260506121603 | 62 | 6 | 2.0 | 4.0 | 0.00 | 0.07 | 0.07 | 75 | 1016.3 |
| 20260506121503 | 62 | 1 | 2.0 | 4.0 | 0.00 | 0.07 | 0.07 | 76 | 1016.2 |
| 20260506121403 | 62 | 359 | 2.0 | 4.0 | 0.00 | 0.07 | 0.07 | 75 | 1016.2 |
| 20260506121302 | 62 | 359 | 2.0 | 4.0 | 0.00 | 0.07 | 0.07 | 75 | 1016.3 |
| 20260506121203 | 62 | 358 | 2.0 | 6.0 | 0.00 | 0.07 | 0.07 | 74 | 1016.3 |
| 20260506121103 | 62 | 359 | 2.0 | 6.0 | 0.00 | 0.07 | 0.07 | 76 | 1016.1 |
| 20260506121002 | 62 | 358 | 2.0 | 6.0 | 0.00 | 0.07 | 0.07 | 76 | 1016.3 |
| 20260506120902 | 61 | 356 | 2.0 | 6.0 | 0.00 | 0.07 | 0.07 | 76 | 1016.3 |
| 20260506120802 | 61 | 354 | 3.0 | 6.0 | 0.00 | 0.07 | 0.07 | 75 | 1016.3 |
| 20260506120703 | 61 | 354 | 3.0 | 6.0 | 0.00 | 0.07 | 0.07 | 75 | 1016.3 |
| 20260506120602 | 61 | 355 | 3.0 | 6.0 | 0.00 | 0.07 | 0.07 | 75 | 1016.3 |
| 20260506120502 | 61 | 350 | 3.0 | 6.0 | 0.00 | 0.07 | 0.07 | 76 | 1016.2 |
| 20260506120424 | 61 | 352 | 3.0 | 6.0 | 0.00 | 0.07 | 0.07 | 75 | 1016.3 |
| 20260506120303 | 61 | 352 | 3.0 | 6.0 | 0.00 | 0.07 | 0.07 | 76 | 1016.4 |
| 20260506120202 | 61 | 348 | 3.0 | 6.0 | 0.00 | 0.07 | 0.07 | 74 | 1016.5 |
| 20260506120003 | 60 | 346 | 3.0 | 6.0 | 0.00 | 0.07 | 0.07 | 77 | 1016.4 |
| 20260506115903 | 60 | 347 | 3.0 | 8.0 | 0.00 | 0.07 | 0.07 | 75 | 1016.4 |
| 20260506115802 | 60 | 348 | 3.0 | 8.0 | 0.00 | 0.07 | 0.07 | 75 | 1016.3 |
| 20260506115703 | 60 | 350 | 3.0 | 8.0 | 0.00 | 0.07 | 0.07 | 76 | 1016.4 |
| 20260506115623 | 60 | 350 | 3.0 | 8.0 | 0.00 | 0.07 | 0.07 | 75 | 1016.3 |
| 20260506115503 | 60 | 354 | 3.0 | 8.0 | 0.00 | 0.07 | 0.07 | 76 | 1016.4 |
| 20260506115403 | 60 | 353 | 3.0 | 8.0 | 0.00 | 0.07 | 0.07 | 78 | 1016.3 |
| 20260506115306 | 60 | 355 | 3.0 | 8.0 | 0.00 | 0.07 | 0.07 | 78 | 1016.4 |
| 20260506115224 | 60 | 355 | 3.0 | 8.0 | 0.00 | 0.07 | 0.07 | 78 | 1016.4 |
| 20260506115102 | 60 | 358 | 4.0 | 8.0 | 0.00 | 0.07 | 0.07 | 77 | 1016.2 |
| 20260506115003 | 60 | 360 | 4.0 | 8.0 | 0.00 | 0.07 | 0.07 | 77 | 1016.4 |
| 20260506114903 | 60 | 2 | 3.0 | 8.0 | 0.00 | 0.07 | 0.07 | 78 | 1016.3 |
| 20260506114802 | 60 | 4 | 3.0 | 4.0 | 0.00 | 0.07 | 0.07 | 79 | 1016.4 |
| 20260506114724 | 60 | 4 | 3.0 | 4.0 | 0.00 | 0.07 | 0.07 | 79 | 1016.4 |
| 20260506114623 | 60 | 3 | 3.0 | 4.0 | 0.00 | 0.07 | 0.07 | 79 | 1016.4 |
| 20260506114503 | 60 | 3 | 3.0 | 4.0 | 0.00 | 0.07 | 0.07 | 79 | 1016.3 |
| 20260506114402 | 60 | 360 | 3.0 | 6.0 | 0.00 | 0.07 | 0.07 | 80 | 1016.5 |
| 20260506114302 | 60 | 2 | 3.0 | 6.0 | 0.00 | 0.07 | 0.07 | 80 | 1016.4 |
| 20260506114203 | 60 | 4 | 3.0 | 6.0 | 0.00 | 0.07 | 0.07 | 80 | 1016.4 |
| 20260506114103 | 60 | 4 | 3.0 | 6.0 | 0.00 | 0.07 | 0.07 | 80 | 1016.3 |
| 20260506114002 | 60 | 3 | 3.0 | 6.0 | 0.00 | 0.07 | 0.07 | 81 | 1016.5 |
| 20260506113902 | 60 | 3 | 3.0 | 6.0 | 0.00 | 0.07 | 0.07 | 81 | 1016.5 |
| 20260506113803 | 60 | 2 | 3.0 | 6.0 | 0.00 | 0.07 | 0.07 | 80 | 1016.3 |
| 20260506113703 | 60 | 2 | 3.0 | 6.0 | 0.00 | 0.07 | 0.07 | 80 | 1016.3 |
| 20260506113602 | 60 | 1 | 2.0 | 6.0 | 0.00 | 0.07 | 0.07 | 80 | 1016.5 |
| 20260506113502 | 60 | 1 | 2.0 | 6.0 | 0.00 | 0.07 | 0.07 | 80 | 1016.5 |
| 20260506113423 | 60 | 5 | 2.0 | 6.0 | 0.00 | 0.07 | 0.07 | 81 | 1016.5 |
| 20260506113302 | 60 | 8 | 2.0 | 4.0 | 0.00 | 0.07 | 0.07 | 81 | 1016.4 |
| 20260506113202 | 60 | 7 | 2.0 | 4.0 | 0.00 | 0.07 | 0.07 | 83 | 1016.5 |
| 20260506113124 | 60 | 3 | 2.0 | 4.0 | 0.00 | 0.07 | 0.07 | 82 | 1016.5 |
| 20260506113002 | 60 | 2 | 3.0 | 4.0 | 0.00 | 0.07 | 0.07 | 82 | 1016.5 |
| 20260506112903 | 59 | 4 | 3.0 | 4.0 | 0.00 | 0.07 | 0.07 | 82 | 1016.7 |
| 20260506112803 | 59 | 3 | 3.0 | 4.0 | 0.00 | 0.07 | 0.07 | 81 | 1016.7 |
| 20260506112702 | 59 | 4 | 3.0 | 7.0 | 0.00 | 0.07 | 0.07 | 81 | 1016.7 |
| 20260506112602 | 60 | 5 | 3.0 | 7.0 | 0.00 | 0.07 | 0.07 | 82 | 1016.8 |
| 20260506112503 | 59 | 6 | 3.0 | 7.0 | 0.00 | 0.07 | 0.07 | 82 | 1016.6 |
| 20260506112403 | 59 | 4 | 3.0 | 7.0 | 0.00 | 0.07 | 0.07 | 82 | 1016.6 |
| 20260506112305 | 59 | 4 | 3.0 | 7.0 | 0.00 | 0.07 | 0.07 | 82 | 1016.6 |
| 20260506112202 | 59 | 5 | 3.0 | 7.0 | 0.00 | 0.07 | 0.07 | 82 | 1016.7 |
| 20260506112103 | 59 | 7 | 3.0 | 7.0 | 0.00 | 0.07 | 0.07 | 82 | 1016.6 |
| 20260506112003 | 59 | 7 | 3.0 | 7.0 | 0.00 | 0.07 | 0.07 | 82 | 1016.6 |
| 20260506111923 | 59 | 7 | 3.0 | 7.0 | 0.00 | 0.07 | 0.07 | 82 | 1016.5 |
| 20260506111803 | 59 | 5 | 3.0 | 7.0 | 0.00 | 0.07 | 0.07 | 81 | 1016.6 |
| 20260506111703 | 59 | 5 | 3.0 | 7.0 | 0.00 | 0.07 | 0.07 | 81 | 1016.7 |
| 20260506111603 | 60 | 5 | 3.0 | 6.0 | 0.00 | 0.07 | 0.07 | 82 | 1016.7 |
| 20260506111503 | 60 | 358 | 3.0 | 6.0 | 0.00 | 0.07 | 0.07 | 82 | 1016.5 |
| 20260506111403 | 59 | 359 | 3.0 | 6.0 | 0.00 | 0.07 | 0.07 | 84 | 1016.4 |
| 20260506111302 | 59 | 1 | 3.0 | 6.0 | 0.00 | 0.07 | 0.07 | 83 | 1016.6 |
| 20260506111224 | 59 | 357 | 3.0 | 6.0 | 0.00 | 0.07 | 0.07 | 83 | 1016.6 |
| 20260506111103 | 59 | 356 | 4.0 | 8.0 | 0.00 | 0.07 | 0.07 | 84 | 1016.7 |
| 20260506111003 | 59 | 356 | 3.0 | 8.0 | 0.00 | 0.07 | 0.07 | 83 | 1016.7 |
| 20260506110903 | 60 | 358 | 3.0 | 8.0 | 0.00 | 0.07 | 0.07 | 83 | 1016.7 |
| 20260506110803 | 60 | 359 | 3.0 | 8.0 | 0.00 | 0.07 | 0.07 | 84 | 1016.7 |
| 20260506110703 | 59 | 358 | 3.0 | 8.0 | 0.00 | 0.07 | 0.07 | 84 | 1016.6 |
| 20260506110602 | 59 | 357 | 4.0 | 8.0 | 0.00 | 0.07 | 0.07 | 84 | 1016.5 |
| 20260506110503 | 59 | 360 | 4.0 | 8.0 | 0.00 | 0.07 | 0.07 | 83 | 1016.6 |
| 20260506110423 | 59 | 360 | 4.0 | 8.0 | 0.00 | 0.07 | 0.07 | 83 | 1016.6 |
| 20260506110324 | 59 | 1 | 3.0 | 8.0 | 0.00 | 0.07 | 0.07 | 83 | 1016.7 |
| 20260506110223 | 59 | 360 | 3.0 | 8.0 | 0.00 | 0.07 | 0.07 | 83 | 1016.9 |
| 20260506110003 | 58 | 11 | 3.0 | 6.0 | 0.00 | 0.07 | 0.07 | 84 | 1016.5 |
| 20260506105903 | 58 | 11 | 3.0 | 6.0 | 0.00 | 0.07 | 0.07 | 84 | 1016.5 |
| 20260506105824 | 58 | 10 | 3.0 | 6.0 | 0.00 | 0.07 | 0.07 | 84 | 1016.6 |
| 20260506105703 | 58 | 7 | 3.0 | 6.0 | 0.00 | 0.07 | 0.07 | 84 | 1016.6 |
| 20260506105602 | 58 | 9 | 3.0 | 6.0 | 0.00 | 0.07 | 0.07 | 85 | 1016.6 |
| 20260506105503 | 58 | 9 | 3.0 | 6.0 | 0.00 | 0.07 | 0.07 | 86 | 1016.8 |
| 20260506105403 | 58 | 8 | 3.0 | 6.0 | 0.00 | 0.07 | 0.07 | 86 | 1016.5 |
| 20260506105305 | 57 | 6 | 3.0 | 6.0 | 0.00 | 0.07 | 0.07 | 86 | 1016.6 |
| 20260506105202 | 57 | 6 | 3.0 | 6.0 | 0.00 | 0.07 | 0.07 | 85 | 1016.6 |
| 20260506105103 | 57 | 3 | 3.0 | 6.0 | 0.00 | 0.07 | 0.07 | 85 | 1016.7 |
| 20260506105003 | 57 | 2 | 3.0 | 6.0 | 0.00 | 0.07 | 0.07 | 86 | 1016.7 |
| 20260506104903 | 57 | 1 | 3.0 | 6.0 | 0.00 | 0.07 | 0.07 | 86 | 1016.6 |
| 20260506104824 | 57 | 1 | 3.0 | 6.0 | 0.00 | 0.07 | 0.07 | 87 | 1016.6 |
| 20260506104724 | 57 | 1 | 3.0 | 6.0 | 0.00 | 0.07 | 0.07 | 87 | 1016.6 |
| 20260506104603 | 57 | 4 | 3.0 | 6.0 | 0.00 | 0.07 | 0.07 | 87 | 1016.6 |
| 20260506104503 | 57 | 5 | 3.0 | 4.0 | 0.00 | 0.07 | 0.07 | 87 | 1016.7 |
| 20260506104424 | 57 | 5 | 3.0 | 4.0 | 0.00 | 0.07 | 0.07 | 87 | 1016.7 |
| 20260506104302 | 57 | 8 | 3.0 | 4.0 | 0.00 | 0.07 | 0.07 | 87 | 1016.7 |
| 20260506104203 | 57 | 9 | 3.0 | 4.0 | 0.00 | 0.07 | 0.07 | 87 | 1016.6 |
| 20260506104102 | 57 | 9 | 3.0 | 4.0 | 0.00 | 0.07 | 0.07 | 87 | 1016.7 |
| 20260506104003 | 57 | 9 | 3.0 | 4.0 | 0.00 | 0.07 | 0.07 | 87 | 1016.7 |
| 20260506103903 | 57 | 10 | 2.0 | 4.0 | 0.00 | 0.07 | 0.07 | 87 | 1016.7 |
| 20260506103824 | 57 | 10 | 2.0 | 4.0 | 0.00 | 0.07 | 0.07 | 87 | 1016.7 |
| 20260506103703 | 57 | 9 | 3.0 | 4.0 | 0.00 | 0.07 | 0.07 | 87 | 1016.7 |
| 20260506103603 | 57 | 9 | 3.0 | 4.0 | 0.00 | 0.07 | 0.07 | 87 | 1016.7 |
| 20260506103503 | 57 | 9 | 3.0 | 4.0 | 0.00 | 0.07 | 0.07 | 87 | 1016.7 |
| 20260506103403 | 57 | 11 | 2.0 | 4.0 | 0.00 | 0.07 | 0.07 | 87 | 1016.8 |
| 20260506103302 | 57 | 11 | 2.0 | 4.0 | 0.00 | 0.07 | 0.07 | 87 | 1016.7 |
| 20260506103203 | 57 | 11 | 2.0 | 4.0 | 0.00 | 0.07 | 0.07 | 87 | 1016.8 |
| 20260506103103 | 57 | 11 | 2.0 | 4.0 | 0.00 | 0.07 | 0.07 | 87 | 1016.8 |
| 20260506103003 | 57 | 12 | 2.0 | 4.0 | 0.00 | 0.07 | 0.07 | 87 | 1016.7 |
| 20260506102903 | 57 | 13 | 2.0 | 4.0 | 0.00 | 0.07 | 0.07 | 87 | 1016.7 |
| 20260506102802 | 57 | 14 | 2.0 | 4.0 | 0.00 | 0.07 | 0.07 | 87 | 1016.8 |
| 20260506102703 | 57 | 14 | 2.0 | 4.0 | 0.00 | 0.07 | 0.07 | 87 | 1016.8 |
| 20260506102603 | 57 | 16 | 2.0 | 4.0 | 0.00 | 0.07 | 0.07 | 87 | 1016.8 |
| 20260506102503 | 57 | 16 | 2.0 | 4.0 | 0.00 | 0.07 | 0.07 | 87 | 1016.7 |
| 20260506102403 | 57 | 16 | 2.0 | 4.0 | 0.00 | 0.07 | 0.07 | 87 | 1016.6 |
| 20260506102324 | 57 | 15 | 2.0 | 4.0 | 0.00 | 0.07 | 0.07 | 87 | 1016.6 |
| 20260506102203 | 57 | 16 | 2.0 | 4.0 | 0.00 | 0.07 | 0.07 | 86 | 1016.6 |
| 20260506102103 | 57 | 16 | 2.0 | 4.0 | 0.00 | 0.07 | 0.07 | 86 | 1016.6 |
| 20260506102003 | 57 | 13 | 2.0 | 4.0 | 0.00 | 0.08 | 0.07 | 86 | 1016.6 |
| 20260506101924 | 57 | 12 | 2.0 | 4.0 | 0.00 | 0.08 | 0.07 | 86 | 1016.7 |
| 20260506101824 | 57 | 12 | 2.0 | 4.0 | 0.00 | 0.09 | 0.07 | 85 | 1016.5 |
| 20260506101702 | 57 | 11 | 2.0 | 4.0 | 0.00 | 0.09 | 0.07 | 85 | 1016.6 |
| 20260506101603 | 57 | 9 | 2.0 | 3.0 | 0.00 | 0.10 | 0.07 | 85 | 1016.6 |
| 20260506101503 | 57 | 9 | 2.0 | 3.0 | 0.00 | 0.10 | 0.07 | 85 | 1016.6 |
| 20260506101403 | 57 | 8 | 2.0 | 3.0 | 0.00 | 0.10 | 0.07 | 85 | 1016.5 |
| 20260506101303 | 57 | 8 | 2.0 | 3.0 | 0.00 | 0.10 | 0.07 | 84 | 1016.8 |
| 20260506101203 | 57 | 10 | 2.0 | 3.0 | 0.00 | 0.10 | 0.07 | 84 | 1016.5 |
| 20260506101124 | 57 | 10 | 2.0 | 3.0 | 0.00 | 0.10 | 0.07 | 84 | 1016.5 |
| 20260506101003 | 57 | 27 | 2.0 | 3.0 | 0.00 | 0.10 | 0.07 | 83 | 1016.6 |
| 20260506100903 | 57 | 36 | 2.0 | 3.0 | 0.00 | 0.10 | 0.07 | 83 | 1016.6 |
| 20260506100803 | 57 | 40 | 2.0 | 3.0 | 0.00 | 0.10 | 0.07 | 82 | 1016.5 |
| 20260506100702 | 57 | 40 | 2.0 | 3.0 | 0.00 | 0.10 | 0.07 | 82 | 1016.5 |
| 20260506100603 | 57 | 45 | 2.0 | 3.0 | 0.00 | 0.10 | 0.07 | 82 | 1016.5 |
| 20260506100502 | 57 | 51 | 2.0 | 3.0 | 0.00 | 0.10 | 0.07 | 82 | 1016.5 |
| 20260506100424 | 57 | 61 | 1.0 | 3.0 | 0.00 | 0.10 | 0.07 | 81 | 1016.5 |
| 20260506100324 | 58 | 76 | 1.0 | 3.0 | 0.00 | 0.10 | 0.07 | 81 | 1016.6 |
| 20260506100203 | 58 | 90 | 1.0 | 3.0 | 0.00 | 0.10 | 0.07 | 81 | 1016.5 |
| 20260506100003 | 59 | 90 | 1.0 | 2.0 | 0.00 | 0.10 | 0.07 | 81 | 1016.6 |
| 20260506095924 | 59 | 90 | 1.0 | 2.0 | 0.00 | 0.10 | 0.07 | 81 | 1016.5 |
| 20260506095803 | 60 | 90 | 1.0 | 2.0 | 0.00 | 0.10 | 0.07 | 80 | 1016.4 |
| 20260506095703 | 60 | 90 | 1.0 | 2.0 | 0.00 | 0.10 | 0.07 | 80 | 1016.6 |
| 20260506095603 | 60 | 90 | 1.0 | 2.0 | 0.00 | 0.10 | 0.07 | 80 | 1016.5 |
| 20260506095524 | 60 | 90 | 1.0 | 2.0 | 0.00 | 0.10 | 0.07 | 80 | 1016.6 |
| 20260506095403 | 60 | 90 | 1.0 | 2.0 | 0.00 | 0.10 | 0.07 | 80 | 1016.5 |
| 20260506095305 | 60 | 90 | 1.0 | 2.0 | 0.00 | 0.10 | 0.07 | 80 | 1016.6 |
| 20260506095203 | 60 | 90 | 1.0 | 2.0 | 0.00 | 0.10 | 0.07 | 79 | 1016.4 |
| 20260506095124 | 60 | 90 | 1.0 | 2.0 | 0.00 | 0.10 | 0.07 | 79 | 1016.4 |
| 20260506095003 | 60 | 90 | 0.0 | 1.0 | 0.00 | 0.10 | 0.07 | 78 | 1016.3 |
| 20260506094902 | 60 | 90 | 0.0 | 1.0 | 0.00 | 0.10 | 0.07 | 78 | 1016.7 |
| 20260506094803 | 60 | 90 | 0.0 | 1.0 | 0.00 | 0.10 | 0.07 | 78 | 1016.8 |
| 20260506094703 | 60 | 90 | 0.0 | 1.0 | 0.00 | 0.10 | 0.07 | 80 | 1016.6 |
| 20260506094602 | 61 | 90 | 0.0 | 1.0 | 0.00 | 0.10 | 0.07 | 81 | 1016.8 |
| 20260506094503 | 61 | 90 | 0.0 | 1.0 | 0.00 | 0.10 | 0.07 | 81 | 1016.7 |
| 20260506094403 | 61 | 90 | 0.0 | 1.0 | 0.00 | 0.10 | 0.07 | 81 | 1016.6 |
| 20260506094303 | 61 | 90 | 0.0 | 1.0 | 0.00 | 0.10 | 0.07 | 81 | 1016.6 |
| 20260506094224 | 61 | 90 | 0.0 | 2.0 | 0.00 | 0.10 | 0.07 | 82 | 1016.4 |
| 20260506094103 | 60 | 90 | 1.0 | 2.0 | 0.00 | 0.10 | 0.07 | 83 | 1016.6 |
| 20260506094024 | 60 | 90 | 1.0 | 2.0 | 0.00 | 0.10 | 0.07 | 83 | 1016.8 |
| 20260506093903 | 60 | 90 | 1.0 | 2.0 | 0.00 | 0.10 | 0.07 | 83 | 1016.6 |
| 20260506093803 | 59 | 90 | 1.0 | 2.0 | 0.00 | 0.10 | 0.07 | 83 | 1016.7 |
| 20260506093724 | 59 | 90 | 1.0 | 2.0 | 0.00 | 0.10 | 0.07 | 82 | 1016.7 |
| 20260506093603 | 59 | 90 | 1.0 | 2.0 | 0.00 | 0.10 | 0.07 | 81 | 1016.5 |
| 20260506093502 | 59 | 90 | 1.0 | 2.0 | 0.00 | 0.10 | 0.07 | 81 | 1016.6 |
| 20260506093402 | 60 | 90 | 1.0 | 2.0 | 0.00 | 0.10 | 0.07 | 81 | 1016.6 |
| 20260506093303 | 61 | 90 | 1.0 | 2.0 | 0.00 | 0.10 | 0.07 | 81 | 1016.5 |
| 20260506093203 | 61 | 90 | 1.0 | 2.0 | 0.00 | 0.10 | 0.07 | 82 | 1016.6 |
| 20260506093124 | 61 | 90 | 1.0 | 2.0 | 0.00 | 0.10 | 0.07 | 82 | 1016.6 |
| 20260506093003 | 61 | 90 | 1.0 | 2.0 | 0.00 | 0.10 | 0.07 | 84 | 1016.6 |
| 20260506092903 | 60 | 90 | 1.0 | 2.0 | 0.00 | 0.10 | 0.07 | 83 | 1016.5 |
| 20260506092803 | 60 | 90 | 1.0 | 2.0 | 0.00 | 0.10 | 0.07 | 82 | 1016.6 |
| 20260506092703 | 60 | 90 | 1.0 | 2.0 | 0.00 | 0.10 | 0.07 | 82 | 1016.6 |
| 20260506092602 | 60 | 90 | 1.0 | 2.0 | 0.00 | 0.10 | 0.07 | 82 | 1016.8 |
| 20260506092503 | 60 | 90 | 1.0 | 2.0 | 0.00 | 0.10 | 0.07 | 82 | 1016.4 |
| 20260506092403 | 60 | 90 | 1.0 | 2.0 | 0.00 | 0.10 | 0.07 | 83 | 1016.6 |
| 20260506092324 | 61 | 90 | 1.0 | 2.0 | 0.00 | 0.10 | 0.07 | 83 | 1016.6 |
| 20260506092203 | 61 | 90 | 1.0 | 2.0 | 0.00 | 0.11 | 0.07 | 85 | 1016.5 |
| 20260506092103 | 61 | 90 | 1.0 | 2.0 | 0.00 | 0.11 | 0.07 | 86 | 1016.5 |
| 20260506092003 | 61 | 86 | 1.0 | 2.0 | 0.00 | 0.12 | 0.07 | 87 | 1016.7 |
| 20260506091903 | 60 | 86 | 1.0 | 3.0 | 0.00 | 0.12 | 0.07 | 87 | 1016.5 |
| 20260506091824 | 59 | 83 | 1.0 | 3.0 | 0.00 | 0.12 | 0.07 | 88 | 1016.4 |
| 20260506091703 | 59 | 80 | 1.0 | 3.0 | 0.00 | 0.12 | 0.07 | 88 | 1016.5 |
| 20260506091624 | 58 | 76 | 1.0 | 3.0 | 0.00 | 0.12 | 0.07 | 88 | 1016.6 |
| 20260506091524 | 58 | 76 | 1.0 | 3.0 | 0.00 | 0.12 | 0.07 | 88 | 1016.6 |
| 20260506091403 | 58 | 63 | 1.0 | 3.0 | 0.00 | 0.12 | 0.07 | 91 | 1016.5 |
| 20260506091303 | 57 | 58 | 1.0 | 3.0 | 0.00 | 0.13 | 0.07 | 92 | 1016.5 |
| 20260506091202 | 57 | 58 | 1.0 | 3.0 | 0.00 | 0.13 | 0.07 | 92 | 1016.5 |
| 20260506091103 | 57 | 58 | 1.0 | 3.0 | 0.00 | 0.13 | 0.07 | 92 | 1016.5 |
| 20260506091003 | 57 | 56 | 1.0 | 3.0 | 0.00 | 0.13 | 0.07 | 93 | 1016.6 |
| 20260506090903 | 57 | 55 | 1.0 | 3.0 | 0.00 | 0.14 | 0.07 | 94 | 1016.4 |
| 20260506090803 | 57 | 46 | 1.0 | 2.0 | 0.00 | 0.15 | 0.07 | 96 | 1016.5 |
| 20260506090703 | 56 | 46 | 1.0 | 2.0 | 0.00 | 0.15 | 0.07 | 96 | 1016.5 |
| 20260506090603 | 56 | 47 | 1.0 | 2.0 | 0.00 | 0.16 | 0.07 | 96 | 1016.5 |
| 20260506090503 | 57 | 48 | 1.0 | 2.0 | 0.00 | 0.16 | 0.07 | 97 | 1016.6 |
| 20260506090403 | 57 | 50 | 1.0 | 2.0 | 0.00 | 0.16 | 0.07 | 97 | 1016.6 |
| 20260506090303 | 57 | 51 | 1.0 | 2.0 | 0.00 | 0.16 | 0.07 | 98 | 1016.5 |
| 20260506090203 | 56 | 50 | 1.0 | 2.0 | 0.00 | 0.16 | 0.07 | 98 | 1016.5 |
| 20260506090003 | 55 | 49 | 1.0 | 2.0 | 0.00 | 0.16 | 0.07 | 98 | 1016.5 |
| 20260506085903 | 55 | 47 | 1.0 | 2.0 | 0.00 | 0.16 | 0.07 | 98 | 1016.6 |
| 20260506085824 | 55 | 47 | 1.0 | 2.0 | 0.00 | 0.16 | 0.07 | 98 | 1016.6 |
| 20260506085703 | 55 | 52 | 1.0 | 2.0 | 0.00 | 0.16 | 0.07 | 98 | 1016.5 |
| 20260506085603 | 55 | 48 | 1.0 | 2.0 | 0.00 | 0.16 | 0.07 | 99 | 1016.8 |
| 20260506085503 | 55 | 48 | 1.0 | 2.0 | 0.00 | 0.16 | 0.07 | 99 | 1016.8 |
| 20260506085403 | 56 | 48 | 1.0 | 2.0 | 0.00 | 0.16 | 0.07 | 98 | 1016.7 |
| 20260506085305 | 56 | 47 | 1.0 | 2.0 | 0.00 | 0.16 | 0.07 | 99 | 1016.8 |
| 20260506085203 | 56 | 42 | 1.0 | 2.0 | 0.00 | 0.16 | 0.07 | 99 | 1016.5 |
| 20260506085124 | 56 | 42 | 1.0 | 2.0 | 0.00 | 0.16 | 0.07 | 99 | 1016.6 |
| 20260506085003 | 56 | 39 | 1.0 | 2.0 | 0.00 | 0.16 | 0.07 | 99 | 1016.6 |
| 20260506084903 | 56 | 38 | 1.0 | 2.0 | 0.00 | 0.16 | 0.07 | 99 | 1016.6 |
| 20260506084824 | 56 | 37 | 1.0 | 2.0 | 0.00 | 0.16 | 0.07 | 99 | 1016.5 |
| 20260506084703 | 56 | 34 | 1.0 | 2.0 | 0.00 | 0.16 | 0.07 | 99 | 1016.7 |
| 20260506084603 | 56 | 28 | 1.0 | 2.0 | 0.00 | 0.16 | 0.07 | 99 | 1016.6 |
| 20260506084524 | 55 | 32 | 1.0 | 2.0 | 0.00 | 0.16 | 0.07 | 99 | 1016.7 |
| 20260506084403 | 55 | 32 | 1.0 | 2.0 | 0.00 | 0.16 | 0.07 | 99 | 1016.6 |
| 20260506084303 | 55 | 32 | 1.0 | 2.0 | 0.00 | 0.16 | 0.07 | 99 | 1016.6 |
| 20260506084203 | 55 | 38 | 1.0 | 2.0 | 0.00 | 0.16 | 0.07 | 99 | 1016.7 |
| 20260506084103 | 55 | 40 | 1.0 | 2.0 | 0.00 | 0.16 | 0.07 | 99 | 1016.6 |
| 20260506084024 | 55 | 40 | 1.0 | 2.0 | 0.00 | 0.16 | 0.07 | 99 | 1016.6 |
| 20260506083903 | 55 | 51 | 1.0 | 2.0 | 0.00 | 0.16 | 0.07 | 99 | 1016.5 |
| 20260506083824 | 55 | 51 | 1.0 | 2.0 | 0.00 | 0.16 | 0.07 | 99 | 1016.5 |
| 20260506083703 | 55 | 52 | 1.0 | 2.0 | 0.00 | 0.16 | 0.07 | 99 | 1016.7 |
| 20260506083603 | 55 | 53 | 1.0 | 2.0 | 0.00 | 0.16 | 0.07 | 99 | 1016.5 |
| 20260506083503 | 55 | 53 | 1.0 | 2.0 | 0.00 | 0.16 | 0.07 | 99 | 1016.5 |
| 20260506083403 | 55 | 55 | 1.0 | 2.0 | 0.00 | 0.16 | 0.07 | 99 | 1016.6 |
| 20260506083303 | 56 | 55 | 1.0 | 2.0 | 0.00 | 0.16 | 0.07 | 99 | 1016.4 |
| 20260506083224 | 56 | 56 | 1.0 | 2.0 | 0.00 | 0.16 | 0.07 | 99 | 1016.6 |
| 20260506083103 | 56 | 59 | 1.0 | 2.0 | 0.00 | 0.16 | 0.07 | 99 | 1016.5 |
| 20260506083003 | 56 | 61 | 1.0 | 2.0 | 0.00 | 0.16 | 0.07 | 99 | 1016.6 |
| 20260506082903 | 56 | 60 | 1.0 | 2.0 | 0.00 | 0.16 | 0.07 | 99 | 1016.7 |
| 20260506082803 | 55 | 49 | 1.0 | 2.0 | 0.00 | 0.16 | 0.07 | 99 | 1016.6 |
| 20260506082703 | 55 | 48 | 1.0 | 2.0 | 0.00 | 0.16 | 0.07 | 99 | 1016.7 |
| 20260506082603 | 54 | 48 | 1.0 | 2.0 | 0.00 | 0.16 | 0.07 | 99 | 1016.7 |
| 20260506082503 | 54 | 49 | 1.0 | 2.0 | 0.00 | 0.16 | 0.07 | 99 | 1016.6 |
| 20260506082403 | 54 | 48 | 1.0 | 2.0 | 0.00 | 0.16 | 0.07 | 99 | 1016.7 |
| 20260506082305 | 54 | 47 | 1.0 | 2.0 | 0.00 | 0.16 | 0.07 | 99 | 1016.8 |
| 20260506082203 | 54 | 47 | 1.0 | 2.0 | 0.00 | 0.16 | 0.07 | 99 | 1016.6 |
| 20260506082103 | 54 | 45 | 1.0 | 2.0 | 0.00 | 0.16 | 0.07 | 99 | 1016.6 |
| 20260506082003 | 53 | 45 | 1.0 | 2.0 | 0.00 | 0.16 | 0.07 | 99 | 1016.4 |
| 20260506081903 | 53 | 45 | 1.0 | 2.0 | 0.00 | 0.16 | 0.07 | 99 | 1016.4 |
| 20260506081824 | 53 | 45 | 1.0 | 2.0 | 0.00 | 0.16 | 0.07 | 99 | 1016.6 |
| 20260506081703 | 53 | 45 | 1.0 | 2.0 | 0.00 | 0.16 | 0.07 | 99 | 1016.6 |
| 20260506081624 | 53 | 47 | 1.0 | 2.0 | 0.00 | 0.16 | 0.07 | 99 | 1016.8 |
| 20260506081503 | 53 | 46 | 1.0 | 2.0 | 0.00 | 0.16 | 0.07 | 99 | 1016.7 |
| 20260506081403 | 53 | 45 | 1.0 | 2.0 | 0.00 | 0.16 | 0.07 | 99 | 1016.7 |
| 20260506081302 | 53 | 45 | 1.0 | 2.0 | 0.00 | 0.16 | 0.07 | 99 | 1016.7 |
| 20260506081224 | 53 | 44 | 1.0 | 2.0 | 0.00 | 0.16 | 0.07 | 99 | 1016.7 |
| 20260506081103 | 52 | 44 | 1.0 | 2.0 | 0.00 | 0.16 | 0.07 | 99 | 1016.7 |
| 20260506081003 | 52 | 45 | 1.0 | 2.0 | 0.00 | 0.16 | 0.07 | 99 | 1016.6 |
| 20260506080903 | 52 | 46 | 1.0 | 2.0 | 0.00 | 0.16 | 0.07 | 99 | 1016.6 |
| 20260506080803 | 52 | 47 | 1.0 | 2.0 | 0.00 | 0.16 | 0.07 | 99 | 1016.6 |
| 20260506080703 | 52 | 47 | 1.0 | 2.0 | 0.00 | 0.16 | 0.07 | 99 | 1016.7 |
| 20260506080603 | 52 | 46 | 1.0 | 2.0 | 0.00 | 0.16 | 0.07 | 99 | 1016.7 |
| 20260506080503 | 52 | 46 | 1.0 | 2.0 | 0.00 | 0.16 | 0.07 | 99 | 1016.8 |
| 20260506080403 | 52 | 46 | 1.0 | 2.0 | 0.00 | 0.16 | 0.07 | 99 | 1016.6 |
| 20260506080324 | 52 | 46 | 1.0 | 2.0 | 0.00 | 0.16 | 0.07 | 99 | 1016.6 |
| 20260506080203 | 52 | 47 | 1.0 | 2.0 | 0.00 | 0.16 | 0.07 | 99 | 1016.6 |
| 20260506073503 | 51 | 44 | 1.0 | 2.0 | 0.00 | 0.16 | 0.07 | 99 | 1016.8 |
| 20260506073424 | 51 | 44 | 1.0 | 2.0 | 0.00 | 0.17 | 0.07 | 99 | 1016.8 |
| 20260506073324 | 51 | 44 | 1.0 | 2.0 | 0.00 | 0.17 | 0.07 | 99 | 1016.7 |
| 20260506073203 | 51 | 42 | 1.0 | 2.0 | 0.00 | 0.17 | 0.07 | 99 | 1016.7 |
| 20260506073103 | 51 | 42 | 1.0 | 2.0 | 0.00 | 0.17 | 0.07 | 99 | 1016.7 |
| 20260506073003 | 51 | 42 | 1.0 | 2.0 | 0.00 | 0.17 | 0.07 | 99 | 1016.7 |
| 20260506072903 | 51 | 43 | 1.0 | 2.0 | 0.00 | 0.17 | 0.07 | 99 | 1016.6 |
| 20260506072803 | 51 | 43 | 1.0 | 2.0 | 0.00 | 0.17 | 0.07 | 99 | 1016.5 |
| 20260506072703 | 51 | 40 | 0.0 | 1.0 | 0.00 | 0.17 | 0.07 | 99 | 1016.6 |
| 20260506072603 | 51 | 41 | 0.0 | 1.0 | 0.00 | 0.17 | 0.07 | 99 | 1016.6 |
| 20260506072503 | 51 | 41 | 0.0 | 1.0 | 0.00 | 0.17 | 0.07 | 99 | 1016.6 |
| 20260506072403 | 51 | 41 | 0.0 | 1.0 | 0.00 | 0.17 | 0.07 | 99 | 1016.6 |
| 20260506072305 | 51 | 41 | 0.0 | 1.0 | 0.00 | 0.17 | 0.07 | 99 | 1016.6 |
| 20260506072224 | 51 | 41 | 0.0 | 1.0 | 0.00 | 0.18 | 0.07 | 99 | 1016.5 |
| 20260506072103 | 51 | 41 | 0.0 | 1.0 | 0.00 | 0.18 | 0.07 | 99 | 1016.7 |
| 20260506072003 | 51 | 53 | 0.0 | 3.0 | 0.00 | 0.18 | 0.07 | 99 | 1016.6 |
| 20260506071924 | 51 | 53 | 0.0 | 3.0 | 0.00 | 0.18 | 0.07 | 99 | 1016.6 |
| 20260506071803 | 51 | 51 | 0.0 | 3.0 | 0.00 | 0.18 | 0.07 | 99 | 1016.6 |
| 20260506071703 | 51 | 51 | 1.0 | 3.0 | 0.00 | 0.18 | 0.07 | 99 | 1016.6 |
| 20260506071624 | 51 | 51 | 1.0 | 3.0 | 0.00 | 0.18 | 0.07 | 99 | 1016.6 |
| 20260506071503 | 51 | 51 | 1.0 | 3.0 | 0.00 | 0.18 | 0.07 | 99 | 1016.6 |
| 20260506071403 | 51 | 51 | 1.0 | 3.0 | 0.00 | 0.18 | 0.07 | 99 | 1016.6 |
| 20260506071303 | 51 | 51 | 1.0 | 3.0 | 0.00 | 0.18 | 0.07 | 99 | 1016.6 |
| 20260506071224 | 51 | 51 | 1.0 | 3.0 | 0.00 | 0.18 | 0.07 | 99 | 1016.6 |
| 20260506071103 | 51 | 51 | 1.0 | 3.0 | 0.00 | 0.18 | 0.07 | 99 | 1016.5 |
| 20260506071024 | 51 | 51 | 1.0 | 3.0 | 0.00 | 0.19 | 0.07 | 99 | 1016.7 |
| 20260506070903 | 51 | 42 | 1.0 | 2.0 | 0.00 | 0.19 | 0.07 | 99 | 1016.5 |
| 20260506070803 | 51 | 42 | 1.0 | 2.0 | 0.00 | 0.19 | 0.07 | 99 | 1016.6 |
| 20260506070703 | 51 | 42 | 1.0 | 2.0 | 0.00 | 0.20 | 0.07 | 99 | 1016.6 |
| 20260506070603 | 51 | 43 | 1.0 | 2.0 | 0.00 | 0.20 | 0.07 | 99 | 1016.5 |
| 20260506070503 | 51 | 42 | 1.0 | 1.0 | 0.00 | 0.21 | 0.07 | 99 | 1016.5 |
| 20260506070403 | 51 | 41 | 0.0 | 1.0 | 0.00 | 0.21 | 0.07 | 99 | 1016.5 |
| 20260506070303 | 51 | 40 | 0.0 | 1.0 | 0.00 | 0.21 | 0.07 | 99 | 1016.7 |
| 20260506070203 | 51 | 40 | 0.0 | 1.0 | 0.00 | 0.21 | 0.07 | 99 | 1016.4 |
| 20260506070103 | 51 | 40 | 0.0 | 1.0 | 0.00 | 0.21 | 0.07 | 99 | 1016.5 |
| 20260506062503 | 50 | 39 | 0.0 | 1.0 | 0.00 | 0.26 | 0.07 | 99 | 1016.5 |
| 20260506062403 | 50 | 39 | 0.0 | 1.0 | 0.00 | 0.27 | 0.07 | 99 | 1016.4 |
| 20260506062324 | 50 | 39 | 0.0 | 1.0 | 0.00 | 0.27 | 0.07 | 99 | 1016.4 |
| 20260506062224 | 50 | 39 | 0.0 | 1.0 | 0.00 | 0.27 | 0.07 | 99 | 1016.4 |
| 20260506062103 | 50 | 39 | 0.0 | 1.0 | 0.00 | 0.28 | 0.07 | 99 | 1016.3 |
| 20260506062024 | 50 | 39 | 0.0 | 1.0 | 0.00 | 0.28 | 0.07 | 99 | 1016.2 |
| 20260506061903 | 50 | 39 | 0.0 | 1.0 | 0.00 | 0.28 | 0.07 | 99 | 1016.2 |
| 20260506061824 | 50 | 40 | 0.0 | 1.0 | 0.00 | 0.28 | 0.07 | 99 | 1016.3 |
| 20260506061703 | 50 | 40 | 0.0 | 1.0 | 0.00 | 0.29 | 0.07 | 99 | 1016.1 |
| 20260506061603 | 50 | 40 | 0.0 | 1.0 | 0.00 | 0.29 | 0.07 | 99 | 1016.2 |
| 20260506061524 | 50 | 40 | 0.0 | 1.0 | 0.00 | 0.29 | 0.07 | 99 | 1016.2 |
| 20260506061403 | 50 | 41 | 0.0 | 1.0 | 0.00 | 0.29 | 0.07 | 99 | 1016.2 |
| 20260506061303 | 50 | 41 | 0.0 | 1.0 | 0.00 | 0.29 | 0.07 | 99 | 1016.2 |
| 20260506061224 | 50 | 42 | 0.0 | 1.0 | 0.00 | 0.29 | 0.07 | 99 | 1016.3 |
| 20260506061103 | 50 | 40 | 0.0 | 1.0 | 0.00 | 0.29 | 0.07 | 99 | 1016.1 |
| 20260506061003 | 50 | 40 | 0.0 | 1.0 | 0.00 | 0.29 | 0.07 | 99 | 1016.3 |
| 20260506060903 | 50 | 40 | 0.0 | 1.0 | 0.00 | 0.29 | 0.07 | 99 | 1016.2 |
| 20260506060803 | 50 | 38 | 0.0 | 1.0 | 0.00 | 0.29 | 0.07 | 99 | 1016.3 |
| 20260506060703 | 50 | 38 | 0.0 | 1.0 | 0.00 | 0.29 | 0.07 | 99 | 1016.3 |
| 20260506060603 | 50 | 38 | 0.0 | 1.0 | 0.00 | 0.30 | 0.07 | 99 | 1016.3 |
| 20260506060503 | 50 | 38 | 0.0 | 1.0 | 0.00 | 0.30 | 0.07 | 99 | 1016.3 |
| 20260506060403 | 50 | 42 | 0.0 | 1.0 | 0.00 | 0.30 | 0.07 | 99 | 1016.3 |
| 20260506060303 | 50 | 42 | 0.0 | 1.0 | 0.00 | 0.31 | 0.07 | 99 | 1016.3 |
| 20260506060203 | 50 | 42 | 0.0 | 1.0 | 0.00 | 0.31 | 0.07 | 99 | 1016.3 |
| 20260506051403 | 49 | 40 | 0.0 | 1.0 | 0.00 | 0.38 | 0.07 | 99 | 1016.2 |
| 20260506051303 | 49 | 39 | 0.0 | 1.0 | 0.00 | 0.38 | 0.07 | 99 | 1016.1 |
| 20260506051203 | 49 | 39 | 0.0 | 1.0 | 0.00 | 0.38 | 0.07 | 99 | 1016.3 |
| 20260506051124 | 49 | 39 | 0.0 | 1.0 | 0.00 | 0.38 | 0.07 | 99 | 1016.3 |
| 20260506051003 | 49 | 39 | 0.0 | 1.0 | 0.00 | 0.38 | 0.07 | 99 | 1016.0 |
| 20260506050903 | 49 | 41 | 0.0 | 2.0 | 0.00 | 0.38 | 0.07 | 99 | 1016.2 |
| 20260506050803 | 49 | 41 | 0.0 | 2.0 | 0.00 | 0.38 | 0.07 | 99 | 1016.0 |
| 20260506050703 | 49 | 41 | 0.0 | 2.0 | 0.00 | 0.38 | 0.07 | 99 | 1015.9 |
| 20260506050603 | 49 | 42 | 0.0 | 2.0 | 0.00 | 0.38 | 0.07 | 99 | 1016.0 |
| 20260506050503 | 49 | 43 | 0.0 | 2.0 | 0.00 | 0.38 | 0.07 | 99 | 1016.2 |
| 20260506050403 | 49 | 43 | 0.0 | 2.0 | 0.00 | 0.38 | 0.07 | 99 | 1015.9 |
| 20260506050304 | 49 | 45 | 0.0 | 2.0 | 0.00 | 0.38 | 0.07 | 99 | 1016.0 |
| 20260506050203 | 49 | 45 | 0.0 | 2.0 | 0.00 | 0.38 | 0.07 | 99 | 1016.1 |
| 20260506050124 | 49 | 45 | 0.0 | 2.0 | 0.00 | 0.38 | 0.07 | 99 | 1016.1 |
| 20260506045103 | 49 | 40 | 0.0 | 1.0 | 0.00 | 0.38 | 0.07 | 99 | 1016.0 |
| 20260506045003 | 49 | 40 | 0.0 | 2.0 | 0.00 | 0.38 | 0.07 | 99 | 1016.1 |
| 20260506044903 | 49 | 40 | 0.0 | 2.0 | 0.00 | 0.38 | 0.07 | 99 | 1015.9 |
| 20260506044803 | 49 | 40 | 0.0 | 2.0 | 0.00 | 0.38 | 0.07 | 99 | 1016.1 |
| 20260506044703 | 49 | 40 | 0.0 | 2.0 | 0.00 | 0.38 | 0.07 | 99 | 1016.1 |
| 20260506044603 | 49 | 40 | 0.0 | 2.0 | 0.00 | 0.38 | 0.07 | 99 | 1016.1 |
| 20260506044503 | 49 | 40 | 0.0 | 2.0 | 0.00 | 0.38 | 0.07 | 99 | 1016.1 |
| 20260506044403 | 49 | 42 | 0.0 | 2.0 | 0.00 | 0.38 | 0.07 | 99 | 1016.2 |
| 20260506044324 | 49 | 44 | 1.0 | 2.0 | 0.00 | 0.38 | 0.07 | 99 | 1016.0 |
| 20260506044203 | 49 | 45 | 1.0 | 2.0 | 0.00 | 0.38 | 0.07 | 99 | 1016.1 |
| 20260506044103 | 49 | 45 | 1.0 | 2.0 | 0.00 | 0.38 | 0.07 | 99 | 1016.1 |
| 20260506044003 | 49 | 46 | 1.0 | 2.0 | 0.00 | 0.38 | 0.07 | 99 | 1016.1 |
| 20260506043903 | 49 | 46 | 1.0 | 2.0 | 0.00 | 0.38 | 0.07 | 99 | 1016.0 |
| 20260506043803 | 49 | 45 | 1.0 | 2.0 | 0.00 | 0.38 | 0.07 | 99 | 1016.1 |
| 20260506043703 | 49 | 45 | 1.0 | 3.0 | 0.00 | 0.38 | 0.07 | 99 | 1016.0 |
| 20260506043603 | 49 | 45 | 1.0 | 3.0 | 0.00 | 0.38 | 0.07 | 99 | 1016.0 |
| 20260506043503 | 49 | 45 | 1.0 | 3.0 | 0.00 | 0.38 | 0.07 | 99 | 1016.0 |
| 20260506043403 | 49 | 46 | 1.0 | 3.0 | 0.00 | 0.38 | 0.07 | 99 | 1016.0 |
| 20260506043303 | 49 | 46 | 1.0 | 3.0 | 0.00 | 0.38 | 0.07 | 99 | 1016.1 |
| 20260506043203 | 49 | 45 | 1.0 | 3.0 | 0.00 | 0.38 | 0.07 | 99 | 1016.2 |
| 20260506043103 | 49 | 45 | 1.0 | 3.0 | 0.00 | 0.38 | 0.07 | 99 | 1016.2 |
| 20260506043003 | 49 | 45 | 1.0 | 3.0 | 0.00 | 0.38 | 0.07 | 99 | 1016.1 |
| 20260506042903 | 49 | 45 | 1.0 | 3.0 | 0.00 | 0.38 | 0.07 | 99 | 1016.0 |
| 20260506042803 | 49 | 45 | 1.0 | 3.0 | 0.00 | 0.38 | 0.07 | 99 | 1016.1 |
| 20260506042724 | 49 | 45 | 1.0 | 3.0 | 0.00 | 0.38 | 0.07 | 99 | 1016.2 |
| 20260506042624 | 49 | 46 | 1.0 | 2.0 | 0.00 | 0.38 | 0.07 | 99 | 1015.9 |
| 20260506042503 | 49 | 46 | 1.0 | 2.0 | 0.00 | 0.38 | 0.07 | 99 | 1016.2 |
| 20260506042403 | 49 | 46 | 0.0 | 2.0 | 0.00 | 0.38 | 0.07 | 99 | 1016.1 |
| 20260506042305 | 49 | 46 | 0.0 | 2.0 | 0.00 | 0.38 | 0.07 | 99 | 1016.1 |
| 20260506042203 | 49 | 41 | 0.0 | 2.0 | 0.00 | 0.38 | 0.07 | 99 | 1016.2 |
| 20260506042103 | 49 | 40 | 0.0 | 2.0 | 0.00 | 0.38 | 0.07 | 99 | 1016.2 |
| 20260506042003 | 49 | 39 | 0.0 | 1.0 | 0.00 | 0.38 | 0.07 | 99 | 1016.2 |
| 20260506041903 | 49 | 39 | 0.0 | 1.0 | 0.00 | 0.38 | 0.07 | 99 | 1016.2 |
| 20260506041803 | 49 | 38 | 0.0 | 1.0 | 0.00 | 0.38 | 0.07 | 99 | 1016.1 |
| 20260506041724 | 49 | 38 | 0.0 | 1.0 | 0.00 | 0.38 | 0.07 | 99 | 1016.2 |
| 20260506041624 | 49 | 38 | 0.0 | 1.0 | 0.00 | 0.38 | 0.07 | 99 | 1016.1 |
| 20260506041503 | 49 | 38 | 0.0 | 1.0 | 0.00 | 0.38 | 0.07 | 99 | 1016.2 |
| 20260506041403 | 49 | 38 | 0.0 | 1.0 | 0.00 | 0.38 | 0.07 | 99 | 1016.2 |
| 20260506041324 | 49 | 38 | 0.0 | 1.0 | 0.00 | 0.38 | 0.07 | 99 | 1016.2 |
| 20260506041203 | 49 | 38 | 0.0 | 1.0 | 0.00 | 0.38 | 0.07 | 99 | 1016.2 |
| 20260506041103 | 49 | 39 | 0.0 | 1.0 | 0.00 | 0.38 | 0.07 | 99 | 1016.3 |
| 20260506041024 | 49 | 40 | 0.0 | 1.0 | 0.00 | 0.38 | 0.07 | 99 | 1016.4 |
| 20260506040903 | 49 | 37 | 0.0 | 1.0 | 0.00 | 0.38 | 0.07 | 99 | 1016.3 |
| 20260506040803 | 49 | 0 | 0.0 | 0.0 | 0.00 | 0.38 | 0.07 | 99 | 1016.1 |
| 20260506040703 | 49 | 0 | 0.0 | 0.0 | 0.00 | 0.38 | 0.07 | 99 | 1016.3 |
| 20260506040624 | 49 | 0 | 0.0 | 0.0 | 0.00 | 0.38 | 0.07 | 99 | 1016.3 |
| 20260506040503 | 49 | 0 | 0.0 | 0.0 | 0.00 | 0.38 | 0.07 | 99 | 1016.3 |
| 20260506040403 | 49 | 0 | 0.0 | 0.0 | 0.00 | 0.38 | 0.07 | 99 | 1016.3 |
| 20260506040303 | 49 | 0 | 0.0 | 0.0 | 0.00 | 0.38 | 0.07 | 99 | 1016.3 |
| 20260506040203 | 49 | 0 | 0.0 | 0.0 | 0.00 | 0.38 | 0.07 | 99 | 1016.3 |
| 20260506040003 | 49 | 0 | 0.0 | 0.0 | 0.00 | 0.38 | 0.07 | 99 | 1016.1 |
| 20260506035903 | 49 | 0 | 0.0 | 0.0 | 0.00 | 0.38 | 0.07 | 99 | 1016.1 |
| 20260506035803 | 49 | 0 | 0.0 | 0.0 | 0.00 | 0.38 | 0.07 | 99 | 1016.2 |
| 20260506035703 | 49 | 37 | 0.0 | 1.0 | 0.00 | 0.38 | 0.07 | 99 | 1016.3 |
| 20260506035603 | 49 | 37 | 0.0 | 1.0 | 0.00 | 0.38 | 0.07 | 99 | 1016.4 |
| 20260506035503 | 49 | 37 | 0.0 | 1.0 | 0.00 | 0.38 | 0.07 | 99 | 1016.2 |
| 20260506035403 | 49 | 37 | 0.0 | 1.0 | 0.00 | 0.38 | 0.07 | 99 | 1016.1 |
| 20260506035305 | 49 | 37 | 0.0 | 1.0 | 0.00 | 0.38 | 0.07 | 99 | 1016.3 |
| 20260506035203 | 49 | 37 | 0.0 | 1.0 | 0.00 | 0.38 | 0.07 | 99 | 1016.5 |
| 20260506035103 | 49 | 37 | 0.0 | 1.0 | 0.00 | 0.38 | 0.07 | 99 | 1016.4 |
| 20260506035003 | 49 | 37 | 0.0 | 1.0 | 0.00 | 0.38 | 0.07 | 99 | 1016.1 |
| 20260506034903 | 49 | 37 | 0.0 | 1.0 | 0.00 | 0.38 | 0.07 | 99 | 1016.4 |
| 20260506034824 | 49 | 37 | 0.0 | 1.0 | 0.00 | 0.38 | 0.07 | 99 | 1016.4 |
| 20260506034703 | 49 | 37 | 0.0 | 1.0 | 0.00 | 0.38 | 0.07 | 99 | 1016.4 |
| 20260506034624 | 49 | 38 | 0.0 | 1.0 | 0.00 | 0.38 | 0.07 | 99 | 1016.4 |
| 20260506034524 | 49 | 38 | 0.0 | 1.0 | 0.00 | 0.38 | 0.07 | 99 | 1016.3 |
| 20260506034403 | 49 | 0 | 0.0 | 0.0 | 0.00 | 0.38 | 0.07 | 99 | 1016.4 |
| 20260506034303 | 49 | 0 | 0.0 | 0.0 | 0.00 | 0.38 | 0.07 | 99 | 1016.4 |
| 20260506034203 | 49 | 0 | 0.0 | 0.0 | 0.00 | 0.38 | 0.07 | 99 | 1016.2 |
| 20260506034103 | 49 | 0 | 0.0 | 0.0 | 0.00 | 0.38 | 0.07 | 99 | 1016.3 |
| 20260506034003 | 49 | 0 | 0.0 | 0.0 | 0.00 | 0.38 | 0.07 | 99 | 1016.3 |
| 20260506033924 | 49 | 0 | 0.0 | 0.0 | 0.00 | 0.38 | 0.07 | 99 | 1016.3 |
| 20260506033803 | 49 | 0 | 0.0 | 0.0 | 0.00 | 0.38 | 0.07 | 99 | 1016.2 |
| 20260506033703 | 49 | 0 | 0.0 | 0.0 | 0.00 | 0.38 | 0.07 | 99 | 1016.4 |
| 20260506033603 | 49 | 0 | 0.0 | 0.0 | 0.00 | 0.38 | 0.07 | 99 | 1016.6 |
| 20260506033503 | 49 | 38 | 0.0 | 1.0 | 0.00 | 0.38 | 0.07 | 99 | 1016.3 |
| 20260506033424 | 49 | 38 | 0.0 | 1.0 | 0.00 | 0.38 | 0.07 | 99 | 1016.3 |
| 20260506033303 | 49 | 38 | 0.0 | 1.0 | 0.00 | 0.38 | 0.07 | 99 | 1016.4 |
| 20260506033203 | 49 | 38 | 0.0 | 1.0 | 0.00 | 0.38 | 0.07 | 99 | 1016.3 |
| 20260506033103 | 49 | 38 | 0.0 | 1.0 | 0.00 | 0.38 | 0.07 | 99 | 1016.3 |
| 20260506033003 | 49 | 38 | 0.0 | 1.0 | 0.00 | 0.38 | 0.07 | 99 | 1016.2 |
| 20260506032903 | 49 | 38 | 0.0 | 1.0 | 0.00 | 0.38 | 0.07 | 99 | 1016.7 |
| 20260506032803 | 49 | 38 | 0.0 | 1.0 | 0.01 | 0.38 | 0.07 | 99 | 1016.3 |
| 20260506032703 | 49 | 38 | 0.0 | 1.0 | 0.01 | 0.38 | 0.07 | 99 | 1016.4 |
| 20260506032603 | 49 | 38 | 0.0 | 1.0 | 0.01 | 0.38 | 0.07 | 99 | 1016.3 |
| 20260506032524 | 49 | 38 | 0.0 | 1.0 | 0.01 | 0.38 | 0.07 | 99 | 1016.4 |
| 20260506032403 | 49 | 0 | 0.0 | 0.0 | 0.01 | 0.38 | 0.07 | 99 | 1016.4 |
| 20260506032305 | 49 | 0 | 0.0 | 0.0 | 0.01 | 0.38 | 0.07 | 99 | 1016.5 |
| 20260506032203 | 49 | 0 | 0.0 | 0.0 | 0.01 | 0.38 | 0.07 | 99 | 1016.5 |
| 20260506032103 | 49 | 0 | 0.0 | 0.0 | 0.01 | 0.38 | 0.07 | 99 | 1016.6 |
| 20260506032003 | 49 | 0 | 0.0 | 0.0 | 0.02 | 0.38 | 0.07 | 99 | 1016.6 |
| 20260506031924 | 49 | 0 | 0.0 | 0.0 | 0.02 | 0.38 | 0.07 | 99 | 1016.6 |
| 20260506031803 | 49 | 0 | 0.0 | 0.0 | 0.02 | 0.38 | 0.07 | 99 | 1016.5 |
| 20260506031703 | 49 | 0 | 0.0 | 0.0 | 0.02 | 0.38 | 0.07 | 99 | 1016.5 |
| 20260506031603 | 49 | 0 | 0.0 | 0.0 | 0.02 | 0.38 | 0.07 | 99 | 1016.4 |
| 20260506031503 | 49 | 0 | 0.0 | 0.0 | 0.02 | 0.38 | 0.07 | 99 | 1016.4 |
| 20260506031403 | 49 | 0 | 0.0 | 0.0 | 0.03 | 0.38 | 0.07 | 99 | 1016.4 |
| 20260506031303 | 49 | 37 | 0.0 | 1.0 | 0.03 | 0.38 | 0.07 | 99 | 1016.5 |
| 20260506031203 | 49 | 37 | 0.0 | 1.0 | 0.03 | 0.38 | 0.07 | 99 | 1016.3 |
| 20260506031103 | 49 | 38 | 0.0 | 1.0 | 0.03 | 0.38 | 0.07 | 99 | 1016.6 |
| 20260506031003 | 49 | 38 | 0.0 | 1.0 | 0.03 | 0.38 | 0.07 | 99 | 1016.5 |
| 20260506030903 | 49 | 38 | 0.0 | 1.0 | 0.03 | 0.38 | 0.07 | 99 | 1016.5 |
| 20260506030803 | 49 | 38 | 0.0 | 1.0 | 0.03 | 0.38 | 0.07 | 99 | 1016.4 |
| 20260506030703 | 49 | 38 | 0.0 | 1.0 | 0.03 | 0.38 | 0.07 | 99 | 1016.4 |
| 20260506030603 | 49 | 38 | 0.0 | 1.0 | 0.03 | 0.38 | 0.07 | 99 | 1016.6 |
| 20260506030503 | 49 | 38 | 0.0 | 1.0 | 0.03 | 0.38 | 0.07 | 99 | 1016.5 |
| 20260506030404 | 49 | 38 | 0.0 | 1.0 | 0.04 | 0.38 | 0.07 | 99 | 1016.6 |
| 20260506030303 | 49 | 38 | 0.0 | 1.0 | 0.04 | 0.38 | 0.07 | 99 | 1016.5 |
| 20260506030203 | 49 | 38 | 1.0 | 1.0 | 0.04 | 0.38 | 0.07 | 99 | 1016.5 |
| 20260506030103 | 49 | 37 | 1.0 | 2.0 | 0.04 | 0.38 | 0.07 | 99 | 1016.6 |
| 20260506030003 | 49 | 48 | 1.0 | 2.0 | 0.04 | 0.38 | 0.07 | 99 | 1016.5 |
| 20260506025903 | 49 | 48 | 1.0 | 2.0 | 0.04 | 0.38 | 0.07 | 99 | 1016.5 |
| 20260506025803 | 49 | 46 | 1.0 | 2.0 | 0.04 | 0.38 | 0.07 | 99 | 1016.6 |
| 20260506025703 | 49 | 46 | 1.0 | 2.0 | 0.04 | 0.38 | 0.07 | 99 | 1016.7 |
| 20260506025603 | 49 | 47 | 1.0 | 2.0 | 0.05 | 0.38 | 0.07 | 99 | 1016.6 |
| 20260506025503 | 49 | 48 | 1.0 | 2.0 | 0.05 | 0.38 | 0.07 | 99 | 1016.6 |
| 20260506025403 | 49 | 48 | 1.0 | 2.0 | 0.06 | 0.38 | 0.07 | 99 | 1016.6 |
| 20260506025324 | 49 | 47 | 1.0 | 2.0 | 0.06 | 0.38 | 0.07 | 99 | 1016.5 |
| 20260506025203 | 49 | 46 | 1.0 | 2.0 | 0.06 | 0.38 | 0.07 | 99 | 1016.6 |
| 20260506025103 | 49 | 48 | 1.0 | 2.0 | 0.06 | 0.38 | 0.07 | 99 | 1016.6 |
| 20260506025003 | 49 | 52 | 0.0 | 2.0 | 0.07 | 0.38 | 0.07 | 99 | 1016.6 |
| 20260506024903 | 49 | 28 | 0.0 | 1.0 | 0.07 | 0.38 | 0.07 | 99 | 1016.7 |
| 20260506024803 | 49 | 29 | 0.0 | 1.0 | 0.07 | 0.38 | 0.07 | 99 | 1016.5 |
| 20260506024703 | 49 | 29 | 0.0 | 1.0 | 0.07 | 0.38 | 0.07 | 99 | 1016.6 |
| 20260506024624 | 49 | 29 | 0.0 | 1.0 | 0.07 | 0.38 | 0.07 | 99 | 1016.6 |
| 20260506024503 | 49 | 29 | 0.0 | 1.0 | 0.07 | 0.38 | 0.07 | 99 | 1016.6 |
| 20260506024403 | 49 | 29 | 0.0 | 1.0 | 0.07 | 0.38 | 0.07 | 99 | 1016.6 |
| 20260506024303 | 49 | 29 | 0.0 | 1.0 | 0.07 | 0.38 | 0.07 | 99 | 1016.6 |
| 20260506024203 | 49 | 0 | 0.0 | 0.0 | 0.07 | 0.38 | 0.07 | 99 | 1016.5 |
| 20260506024103 | 49 | 30 | 0.0 | 1.0 | 0.07 | 0.38 | 0.07 | 99 | 1016.4 |
| 20260506024003 | 49 | 30 | 0.0 | 1.0 | 0.07 | 0.38 | 0.07 | 99 | 1016.6 |
| 20260506023903 | 49 | 30 | 0.0 | 1.0 | 0.07 | 0.38 | 0.07 | 99 | 1016.6 |
| 20260506023803 | 49 | 29 | 0.0 | 1.0 | 0.07 | 0.38 | 0.07 | 99 | 1016.4 |
| 20260506023704 | 49 | 29 | 0.0 | 1.0 | 0.07 | 0.38 | 0.07 | 99 | 1016.6 |
| 20260506023603 | 50 | 29 | 0.0 | 1.0 | 0.07 | 0.38 | 0.07 | 99 | 1016.7 |
| 20260506023525 | 50 | 29 | 0.0 | 1.0 | 0.07 | 0.38 | 0.07 | 99 | 1016.7 |
| 20260506023403 | 50 | 29 | 0.0 | 1.0 | 0.07 | 0.38 | 0.07 | 99 | 1016.8 |
| 20260506023303 | 50 | 29 | 0.0 | 1.0 | 0.07 | 0.38 | 0.07 | 99 | 1016.7 |
| 20260506023203 | 50 | 29 | 0.0 | 1.0 | 0.07 | 0.38 | 0.07 | 99 | 1016.6 |
| 20260506023103 | 50 | 29 | 0.0 | 1.0 | 0.07 | 0.38 | 0.07 | 99 | 1016.7 |
| 20260506023003 | 50 | 29 | 0.0 | 1.0 | 0.07 | 0.38 | 0.07 | 99 | 1016.6 |
| 20260506022903 | 50 | 29 | 0.0 | 1.0 | 0.07 | 0.38 | 0.07 | 99 | 1016.7 |
| 20260506022803 | 50 | 29 | 0.0 | 1.0 | 0.06 | 0.37 | 0.06 | 99 | 1016.6 |
| 20260506022704 | 50 | 0 | 0.0 | 0.0 | 0.06 | 0.37 | 0.06 | 99 | 1016.6 |
| 20260506022603 | 50 | 0 | 0.0 | 0.0 | 0.06 | 0.37 | 0.06 | 99 | 1016.4 |
| 20260506022503 | 50 | 0 | 0.0 | 0.0 | 0.06 | 0.37 | 0.06 | 99 | 1016.4 |
| 20260506022424 | 50 | 0 | 0.0 | 0.0 | 0.06 | 0.37 | 0.06 | 99 | 1016.4 |
| 20260506022324 | 50 | 0 | 0.0 | 0.0 | 0.06 | 0.37 | 0.06 | 99 | 1016.7 |
| 20260506022203 | 50 | 0 | 0.0 | 0.0 | 0.06 | 0.37 | 0.06 | 99 | 1016.6 |
| 20260506022124 | 50 | 0 | 0.0 | 0.0 | 0.06 | 0.37 | 0.06 | 99 | 1016.6 |
| 20260506022003 | 50 | 0 | 0.0 | 0.0 | 0.05 | 0.36 | 0.06 | 99 | 1016.5 |
| 20260506021925 | 50 | 0 | 0.0 | 0.0 | 0.05 | 0.36 | 0.05 | 99 | 1016.6 |
| 20260506021803 | 50 | 0 | 0.0 | 0.0 | 0.05 | 0.36 | 0.05 | 99 | 1016.5 |
| 20260506021703 | 50 | 0 | 0.0 | 0.0 | 0.05 | 0.36 | 0.05 | 99 | 1016.6 |
| 20260506021603 | 50 | 0 | 0.0 | 0.0 | 0.05 | 0.36 | 0.05 | 99 | 1016.6 |
| 20260506021503 | 50 | 0 | 0.0 | 0.0 | 0.05 | 0.36 | 0.05 | 99 | 1016.8 |
| 20260506021303 | 50 | 0 | 0.0 | 0.0 | 0.04 | 0.35 | 0.04 | 99 | 1016.8 |
| 20260506021203 | 50 | 0 | 0.0 | 0.0 | 0.04 | 0.35 | 0.04 | 99 | 1016.7 |
| 20260506021103 | 50 | 0 | 0.0 | 0.0 | 0.04 | 0.35 | 0.04 | 99 | 1016.7 |
| 20260506021003 | 50 | 0 | 0.0 | 0.0 | 0.04 | 0.35 | 0.04 | 99 | 1016.8 |
| 20260506020924 | 50 | 0 | 0.0 | 0.0 | 0.04 | 0.35 | 0.04 | 99 | 1016.8 |
| 20260506020803 | 50 | 0 | 0.0 | 0.0 | 0.04 | 0.35 | 0.04 | 99 | 1016.8 |
| 20260506020703 | 50 | 0 | 0.0 | 0.0 | 0.04 | 0.35 | 0.04 | 99 | 1016.8 |
| 20260506020603 | 50 | 0 | 0.0 | 0.0 | 0.04 | 0.35 | 0.04 | 99 | 1016.9 |
| 20260506020503 | 50 | 0 | 0.0 | 0.0 | 0.04 | 0.35 | 0.04 | 99 | 1016.8 |
| 20260506020403 | 50 | 0 | 0.0 | 0.0 | 0.03 | 0.34 | 0.04 | 99 | 1016.9 |
| 20260506020303 | 50 | 0 | 0.0 | 0.0 | 0.03 | 0.34 | 0.03 | 99 | 1016.9 |
| 20260506020203 | 50 | 0 | 0.0 | 0.0 | 0.03 | 0.34 | 0.03 | 99 | 1016.7 |
| 20260506020103 | 49 | 0 | 0.0 | 0.0 | 0.03 | 0.34 | 0.03 | 99 | 1016.8 |
| 20260506020004 | 49 | 0 | 0.0 | 0.0 | 0.03 | 0.34 | 0.03 | 99 | 1016.7 |
| 20260506015903 | 49 | 0 | 0.0 | 0.0 | 0.03 | 0.34 | 0.03 | 99 | 1016.8 |
| 20260506015803 | 49 | 0 | 0.0 | 0.0 | 0.03 | 0.34 | 0.03 | 99 | 1016.9 |
| 20260506015703 | 49 | 0 | 0.0 | 0.0 | 0.03 | 0.34 | 0.03 | 99 | 1016.9 |
| 20260506015603 | 49 | 0 | 0.0 | 0.0 | 0.02 | 0.33 | 0.02 | 99 | 1016.8 |
| 20260506015503 | 49 | 0 | 0.0 | 0.0 | 0.02 | 0.33 | 0.02 | 99 | 1017.0 |
| 20260506015403 | 49 | 0 | 0.0 | 0.0 | 0.01 | 0.32 | 0.01 | 99 | 1016.9 |
| 20260506015324 | 49 | 0 | 0.0 | 0.0 | 0.01 | 0.32 | 0.01 | 99 | 1016.9 |
| 20260506015203 | 49 | 0 | 0.0 | 0.0 | 0.01 | 0.32 | 0.01 | 99 | 1017.1 |
| 20260506015103 | 49 | 0 | 0.0 | 0.0 | 0.01 | 0.32 | 0.01 | 99 | 1017.1 |
| 20260506015003 | 49 | 0 | 0.0 | 0.0 | 0.00 | 0.31 | 0.00 | 99 | 1016.9 |
| 20260506014903 | 49 | 0 | 0.0 | 0.0 | 0.00 | 0.31 | 0.00 | 99 | 1016.8 |
| 20260506014803 | 49 | 0 | 0.0 | 0.0 | 0.00 | 0.31 | 0.00 | 99 | 1017.0 |
| 20260506014703 | 49 | 0 | 0.0 | 0.0 | 0.00 | 0.31 | 0.00 | 99 | 1016.9 |
| 20260506014603 | 49 | 0 | 0.0 | 0.0 | 0.00 | 0.31 | 0.00 | 99 | 1016.9 |
| 20260506014525 | 49 | 0 | 0.0 | 0.0 | 0.00 | 0.31 | 0.00 | 99 | 1016.8 |
| 20260506014403 | 49 | 0 | 0.0 | 0.0 | 0.00 | 0.31 | 0.00 | 99 | 1016.9 |
| 20260506014303 | 49 | 0 | 0.0 | 0.0 | 0.00 | 0.31 | 0.00 | 99 | 1016.8 |
| 20260506014203 | 49 | 0 | 0.0 | 0.0 | 0.00 | 0.31 | 0.00 | 99 | 1017.0 |
| 20260506014103 | 49 | 0 | 0.0 | 0.0 | 0.00 | 0.31 | 0.00 | 99 | 1016.8 |
| 20260506014003 | 49 | 0 | 0.0 | 0.0 | 0.00 | 0.31 | 0.00 | 99 | 1016.8 |
| 20260506013924 | 49 | 0 | 0.0 | 0.0 | 0.00 | 0.31 | 0.00 | 99 | 1016.9 |
| 20260506013824 | 49 | 0 | 0.0 | 0.0 | 0.00 | 0.31 | 0.00 | 99 | 1016.9 |
| 20260506013703 | 49 | 0 | 0.0 | 0.0 | 0.00 | 0.31 | 0.00 | 99 | 1016.8 |
| 20260506013603 | 49 | 0 | 0.0 | 0.0 | 0.00 | 0.31 | 0.00 | 99 | 1016.8 |
| 20260506013524 | 49 | 0 | 0.0 | 0.0 | 0.00 | 0.31 | 0.00 | 99 | 1016.8 |
| 20260506013403 | 49 | 0 | 0.0 | 0.0 | 0.00 | 0.31 | 0.00 | 99 | 1016.8 |
| 20260506013324 | 49 | 0 | 0.0 | 0.0 | 0.00 | 0.31 | 0.00 | 99 | 1016.8 |
| 20260506013203 | 49 | 0 | 0.0 | 0.0 | 0.00 | 0.31 | 0.00 | 99 | 1016.9 |
| 20260506013103 | 49 | 0 | 0.0 | 0.0 | 0.00 | 0.31 | 0.00 | 99 | 1016.9 |
| 20260506013003 | 49 | 0 | 0.0 | 0.0 | 0.00 | 0.31 | 0.00 | 99 | 1016.8 |
| 20260506012903 | 49 | 0 | 0.0 | 0.0 | 0.00 | 0.31 | 0.00 | 99 | 1017.0 |
| 20260506012803 | 49 | 0 | 0.0 | 0.0 | 0.00 | 0.31 | 0.00 | 99 | 1016.9 |
| 20260506012703 | 49 | 0 | 0.0 | 0.0 | 0.00 | 0.31 | 0.00 | 99 | 1017.0 |
| 20260506012603 | 49 | 0 | 0.0 | 0.0 | 0.00 | 0.31 | 0.00 | 99 | 1017.1 |
| 20260506012503 | 49 | 0 | 0.0 | 0.0 | 0.00 | 0.31 | 0.00 | 99 | 1016.9 |
| 20260506012403 | 49 | 0 | 0.0 | 0.0 | 0.00 | 0.31 | 0.00 | 99 | 1017.0 |
| 20260506012307 | 49 | 0 | 0.0 | 0.0 | 0.00 | 0.31 | 0.00 | 99 | 1017.1 |
| 20260506012204 | 49 | 0 | 0.0 | 0.0 | 0.00 | 0.31 | 0.00 | 99 | 1017.1 |
| 20260506012103 | 49 | 0 | 0.0 | 0.0 | 0.00 | 0.31 | 0.00 | 99 | 1017.2 |
| 20260506012003 | 49 | 0 | 0.0 | 0.0 | 0.00 | 0.31 | 0.00 | 99 | 1017.1 |
| 20260506011903 | 49 | 0 | 0.0 | 0.0 | 0.00 | 0.31 | 0.00 | 99 | 1017.0 |
| 20260506011803 | 49 | 0 | 0.0 | 0.0 | 0.00 | 0.31 | 0.00 | 99 | 1017.1 |
| 20260506011703 | 49 | 0 | 0.0 | 0.0 | 0.00 | 0.31 | 0.00 | 99 | 1017.2 |
| 20260506011624 | 49 | 0 | 0.0 | 0.0 | 0.00 | 0.31 | 0.00 | 99 | 1017.2 |
| 20260506011503 | 49 | 0 | 0.0 | 0.0 | 0.00 | 0.31 | 0.00 | 99 | 1017.1 |
| 20260506011403 | 49 | 0 | 0.0 | 0.0 | 0.00 | 0.31 | 0.00 | 99 | 1017.0 |
| 20260506011303 | 49 | 0 | 0.0 | 0.0 | 0.00 | 0.31 | 0.00 | 99 | 1017.2 |
| 20260506011203 | 49 | 0 | 0.0 | 0.0 | 0.00 | 0.31 | 0.00 | 99 | 1017.2 |
| 20260506011103 | 49 | 0 | 0.0 | 0.0 | 0.00 | 0.31 | 0.00 | 99 | 1017.1 |
| 20260506011025 | 49 | 0 | 0.0 | 0.0 | 0.00 | 0.31 | 0.00 | 99 | 1017.1 |
| 20260506010903 | 49 | 0 | 0.0 | 0.0 | 0.00 | 0.31 | 0.00 | 99 | 1017.2 |
| 20260506010803 | 49 | 0 | 0.0 | 0.0 | 0.00 | 0.31 | 0.00 | 99 | 1017.2 |
| 20260506010703 | 49 | 0 | 0.0 | 0.0 | 0.00 | 0.31 | 0.00 | 99 | 1017.3 |
| 20260506010603 | 49 | 0 | 0.0 | 0.0 | 0.00 | 0.31 | 0.00 | 98 | 1017.1 |
| 20260506010503 | 49 | 0 | 0.0 | 0.0 | 0.00 | 0.31 | 0.00 | 98 | 1017.0 |
| 20260506010403 | 49 | 0 | 0.0 | 0.0 | 0.00 | 0.31 | 0.00 | 98 | 1017.1 |
| 20260506010303 | 49 | 0 | 0.0 | 0.0 | 0.00 | 0.31 | 0.00 | 98 | 1017.1 |
| 20260506010203 | 49 | 0 | 0.0 | 0.0 | 0.00 | 0.31 | 0.00 | 98 | 1017.2 |
| 20260506010103 | 49 | 0 | 0.0 | 0.0 | 0.00 | 0.31 | 0.00 | 98 | 1017.1 |
| 20260506010003 | 49 | 0 | 0.0 | 0.0 | 0.00 | 0.31 | 0.00 | 98 | 1017.1 |
| 20260506005903 | 49 | 0 | 0.0 | 0.0 | 0.00 | 0.31 | 0.00 | 98 | 1017.1 |
| 20260506005824 | 49 | 0 | 0.0 | 0.0 | 0.00 | 0.31 | 0.00 | 98 | 1017.0 |
| 20260506005703 | 49 | 0 | 0.0 | 0.0 | 0.00 | 0.31 | 0.00 | 98 | 1017.2 |
| 20260506005624 | 49 | 0 | 0.0 | 0.0 | 0.00 | 0.31 | 0.00 | 98 | 1017.2 |
| 20260506005503 | 49 | 29 | 0.0 | 1.0 | 0.00 | 0.31 | 0.00 | 98 | 1017.3 |
| 20260506005403 | 49 | 30 | 0.0 | 1.0 | 0.00 | 0.31 | 0.00 | 98 | 1017.2 |
| 20260506005306 | 49 | 30 | 0.0 | 1.0 | 0.00 | 0.31 | 0.00 | 98 | 1017.1 |
| 20260506005203 | 49 | 30 | 0.0 | 1.0 | 0.00 | 0.31 | 0.00 | 98 | 1017.1 |
| 20260506005125 | 49 | 30 | 0.0 | 1.0 | 0.00 | 0.31 | 0.00 | 98 | 1017.1 |
| 20260506005003 | 49 | 30 | 0.0 | 1.0 | 0.00 | 0.31 | 0.00 | 98 | 1017.3 |
| 20260506004904 | 49 | 30 | 0.0 | 1.0 | 0.00 | 0.31 | 0.00 | 98 | 1017.3 |
| 20260506004803 | 50 | 30 | 0.0 | 1.0 | 0.00 | 0.31 | 0.00 | 98 | 1017.3 |
| 20260506004703 | 50 | 30 | 0.0 | 1.0 | 0.00 | 0.31 | 0.00 | 98 | 1017.1 |
| 20260506004625 | 50 | 30 | 0.0 | 1.0 | 0.00 | 0.31 | 0.00 | 98 | 1017.1 |
| 20260506004524 | 49 | 30 | 0.0 | 1.0 | 0.00 | 0.31 | 0.00 | 98 | 1017.3 |
| 20260506004403 | 49 | 0 | 0.0 | 0.0 | 0.00 | 0.31 | 0.00 | 98 | 1017.4 |
| 20260506004303 | 49 | 0 | 0.0 | 0.0 | 0.00 | 0.31 | 0.00 | 98 | 1017.3 |
| 20260506004224 | 49 | 0 | 0.0 | 0.0 | 0.00 | 0.31 | 0.00 | 98 | 1017.3 |
| 20260506004103 | 49 | 0 | 0.0 | 0.0 | 0.00 | 0.31 | 0.00 | 98 | 1017.3 |
| 20260506004003 | 49 | 0 | 0.0 | 0.0 | 0.00 | 0.31 | 0.00 | 98 | 1017.2 |
| 20260506003903 | 49 | 0 | 0.0 | 0.0 | 0.00 | 0.31 | 0.00 | 98 | 1017.2 |
| 20260506003804 | 49 | 0 | 0.0 | 0.0 | 0.00 | 0.31 | 0.00 | 98 | 1017.3 |
| 20260506003703 | 49 | 0 | 0.0 | 0.0 | 0.00 | 0.31 | 0.00 | 98 | 1017.4 |
| 20260506003624 | 49 | 0 | 0.0 | 0.0 | 0.00 | 0.31 | 0.00 | 98 | 1017.4 |
| 20260506003504 | 49 | 0 | 0.0 | 0.0 | 0.00 | 0.31 | 0.00 | 98 | 1017.3 |
| 20260506003403 | 49 | 0 | 0.0 | 0.0 | 0.00 | 0.31 | 0.00 | 98 | 1017.5 |
| 20260506003302 | 49 | 0 | 0.0 | 0.0 | 0.00 | 0.31 | 0.00 | 98 | 1017.4 |
| 20260506003202 | 49 | 0 | 0.0 | 0.0 | 0.00 | 0.31 | 0.00 | 98 | 1017.8 |
| 20260506003124 | 49 | 0 | 0.0 | 0.0 | 0.00 | 0.31 | 0.00 | 98 | 1017.8 |
| 20260506003002 | 49 | 0 | 0.0 | 0.0 | 0.00 | 0.31 | 0.00 | 98 | 1017.6 |
| 20260506002903 | 49 | 0 | 0.0 | 0.0 | 0.00 | 0.31 | 0.00 | 98 | 1017.5 |
| 20260506002802 | 49 | 0 | 0.0 | 0.0 | 0.00 | 0.31 | 0.00 | 98 | 1017.7 |
| 20260506002724 | 49 | 0 | 0.0 | 0.0 | 0.00 | 0.31 | 0.00 | 98 | 1017.7 |
| 20260506002603 | 49 | 0 | 0.0 | 0.0 | 0.00 | 0.31 | 0.00 | 98 | 1017.6 |
| 20260506002503 | 49 | 0 | 0.0 | 0.0 | 0.00 | 0.31 | 0.00 | 98 | 1017.6 |
| 20260506002403 | 49 | 0 | 0.0 | 0.0 | 0.00 | 0.31 | 0.00 | 98 | 1017.5 |
| 20260506002323 | 49 | 0 | 0.0 | 0.0 | 0.00 | 0.31 | 0.00 | 98 | 1017.5 |
| 20260506002203 | 49 | 0 | 0.0 | 0.0 | 0.00 | 0.31 | 0.00 | 98 | 1017.5 |
| 20260506002102 | 49 | 0 | 0.0 | 0.0 | 0.00 | 0.31 | 0.00 | 98 | 1017.5 |
| 20260506002002 | 49 | 0 | 0.0 | 0.0 | 0.00 | 0.31 | 0.00 | 98 | 1017.4 |
| 20260506001902 | 49 | 0 | 0.0 | 0.0 | 0.00 | 0.31 | 0.00 | 98 | 1017.7 |
| 20260506001803 | 49 | 0 | 0.0 | 0.0 | 0.00 | 0.31 | 0.00 | 98 | 1017.5 |
| 20260506001702 | 49 | 0 | 0.0 | 0.0 | 0.00 | 0.31 | 0.00 | 98 | 1017.5 |
| 20260506001603 | 50 | 0 | 0.0 | 0.0 | 0.00 | 0.31 | 0.00 | 98 | 1017.7 |
| 20260506001503 | 50 | 29 | 0.0 | 1.0 | 0.00 | 0.31 | 0.00 | 98 | 1017.6 |
| 20260506001403 | 50 | 29 | 0.0 | 1.0 | 0.00 | 0.31 | 0.00 | 98 | 1017.6 |
| 20260506001303 | 50 | 29 | 0.0 | 1.0 | 0.00 | 0.31 | 0.00 | 98 | 1017.6 |
| 20260506001203 | 50 | 29 | 0.0 | 1.0 | 0.00 | 0.31 | 0.00 | 98 | 1017.6 |
| 20260506001103 | 50 | 29 | 0.0 | 1.0 | 0.00 | 0.31 | 0.00 | 98 | 1017.6 |
| 20260506001003 | 50 | 29 | 0.0 | 1.0 | 0.00 | 0.31 | 0.00 | 98 | 1017.6 |
| 20260506000903 | 50 | 29 | 0.0 | 1.0 | 0.00 | 0.31 | 0.00 | 98 | 1017.5 |
| 20260506000803 | 50 | 29 | 0.0 | 1.0 | 0.00 | 0.31 | 0.00 | 98 | 1017.4 |
| 20260506000703 | 50 | 29 | 0.0 | 1.0 | 0.00 | 0.31 | 0.00 | 98 | 1017.6 |
| 20260506000603 | 50 | 29 | 0.0 | 1.0 | 0.00 | 0.31 | 0.00 | 98 | 1017.6 |
| 20260506000503 | 50 | 29 | 0.0 | 1.0 | 0.00 | 0.31 | 0.00 | 98 | 1017.7 |
| 20260506000403 | 50 | 29 | 0.0 | 1.0 | 0.00 | 0.31 | 0.00 | 98 | 1017.6 |
| 20260506000303 | 50 | 29 | 0.0 | 1.0 | 0.00 | 0.31 | 0.00 | 98 | 1017.7 |
| 20260506000204 | 50 | 30 | 0.0 | 1.0 | 0.00 | 0.31 | 0.00 | 98 | 1017.6 |
| 20260506000002 | 50 | 29 | 0.0 | 1.0 | 0.00 | 0.31 | 0.00 | 98 | 1017.6 |
| 20260505235903 | 50 | 29 | 0.0 | 1.0 | 0.00 | 0.31 | 0.00 | 98 | 1017.6 |
| 20260505235803 | 50 | 29 | 0.0 | 1.0 | 0.00 | 0.31 | 0.00 | 98 | 1017.6 |
| 20260505235703 | 50 | 30 | 0.0 | 1.0 | 0.00 | 0.31 | 0.00 | 98 | 1017.7 |
| 20260505235624 | 50 | 30 | 0.0 | 1.0 | 0.00 | 0.31 | 0.00 | 98 | 1017.7 |
| 20260505235503 | 50 | 30 | 0.0 | 1.0 | 0.00 | 0.31 | 0.00 | 98 | 1017.7 |
| 20260505235403 | 50 | 30 | 0.0 | 1.0 | 0.00 | 0.31 | 0.00 | 98 | 1017.6 |
| 20260505235305 | 50 | 19 | 0.0 | 1.0 | 0.00 | 0.31 | 0.00 | 98 | 1017.5 |
| 20260505235203 | 50 | 20 | 0.0 | 1.0 | 0.00 | 0.31 | 0.00 | 98 | 1017.6 |
| 20260505235102 | 50 | 20 | 0.0 | 1.0 | 0.00 | 0.31 | 0.00 | 98 | 1017.6 |
| 20260505235024 | 50 | 21 | 0.0 | 1.0 | 0.00 | 0.31 | 0.00 | 98 | 1017.7 |
| 20260505234902 | 50 | 20 | 0.0 | 1.0 | 0.00 | 0.31 | 0.00 | 98 | 1017.7 |
| 20260505234824 | 50 | 20 | 0.0 | 1.0 | 0.00 | 0.31 | 0.00 | 98 | 1017.6 |
| 20260505234703 | 50 | 20 | 0.0 | 1.0 | 0.00 | 0.31 | 0.00 | 98 | 1017.8 |
| 20260505234602 | 50 | 18 | 0.0 | 1.0 | 0.00 | 0.31 | 0.00 | 98 | 1017.6 |
| 20260505234503 | 50 | 16 | 0.0 | 1.0 | 0.00 | 0.31 | 0.00 | 98 | 1017.7 |
| 20260505234424 | 50 | 11 | 0.0 | 1.0 | 0.00 | 0.31 | 0.00 | 98 | 1017.6 |
| 20260505234302 | 50 | 29 | 0.0 | 1.0 | 0.00 | 0.31 | 0.00 | 98 | 1017.6 |
| 20260505234202 | 50 | 29 | 0.0 | 1.0 | 0.00 | 0.31 | 0.00 | 98 | 1017.5 |
| 20260505234102 | 50 | 29 | 0.0 | 1.0 | 0.00 | 0.31 | 0.00 | 98 | 1017.6 |
| 20260505234003 | 50 | 0 | 0.0 | 0.0 | 0.00 | 0.31 | 0.00 | 98 | 1017.6 |
| 20260505233903 | 50 | 0 | 0.0 | 0.0 | 0.00 | 0.31 | 0.00 | 98 | 1017.6 |
| 20260505233802 | 50 | 0 | 0.0 | 0.0 | 0.00 | 0.31 | 0.00 | 98 | 1017.6 |
| 20260505233703 | 50 | 0 | 0.0 | 0.0 | 0.00 | 0.31 | 0.00 | 98 | 1017.6 |
| 20260505233603 | 50 | 0 | 0.0 | 0.0 | 0.00 | 0.31 | 0.00 | 98 | 1017.6 |
| 20260505233502 | 50 | 0 | 0.0 | 0.0 | 0.00 | 0.31 | 0.00 | 98 | 1017.7 |
| 20260505233403 | 50 | 0 | 0.0 | 0.0 | 0.00 | 0.31 | 0.00 | 98 | 1017.6 |
| 20260505233303 | 50 | 0 | 0.0 | 0.0 | 0.00 | 0.31 | 0.00 | 98 | 1017.6 |
| 20260505233202 | 50 | 0 | 0.0 | 0.0 | 0.00 | 0.31 | 0.00 | 98 | 1017.6 |
| 20260505233102 | 50 | 29 | 0.0 | 1.0 | 0.00 | 0.31 | 0.00 | 98 | 1017.5 |
| 20260505233002 | 50 | 29 | 0.0 | 1.0 | 0.00 | 0.31 | 0.00 | 98 | 1017.7 |
| 20260505232902 | 50 | 29 | 0.0 | 1.0 | 0.00 | 0.31 | 0.00 | 98 | 1017.7 |
| 20260505232803 | 50 | 29 | 0.0 | 1.0 | 0.00 | 0.31 | 0.00 | 98 | 1017.5 |
| 20260505232703 | 50 | 29 | 0.0 | 1.0 | 0.00 | 0.31 | 0.00 | 97 | 1017.7 |
| 20260505232602 | 50 | 29 | 0.0 | 1.0 | 0.00 | 0.31 | 0.00 | 97 | 1017.7 |
| 20260505232502 | 50 | 29 | 0.0 | 1.0 | 0.00 | 0.31 | 0.00 | 97 | 1017.6 |
| 20260505232402 | 50 | 29 | 0.0 | 1.0 | 0.00 | 0.31 | 0.00 | 97 | 1017.6 |
| 20260505232324 | 50 | 29 | 0.0 | 1.0 | 0.00 | 0.31 | 0.00 | 97 | 1017.6 |
| 20260505232202 | 50 | 29 | 0.0 | 1.0 | 0.00 | 0.31 | 0.00 | 97 | 1017.7 |
| 20260505232103 | 50 | 29 | 0.0 | 1.0 | 0.00 | 0.31 | 0.00 | 97 | 1017.7 |
| 20260505232002 | 50 | 29 | 0.0 | 1.0 | 0.00 | 0.31 | 0.00 | 97 | 1017.6 |
| 20260505231903 | 50 | 29 | 0.0 | 1.0 | 0.00 | 0.31 | 0.00 | 97 | 1017.6 |
| 20260505231803 | 50 | 29 | 0.0 | 1.0 | 0.00 | 0.31 | 0.00 | 97 | 1017.5 |
| 20260505231703 | 50 | 29 | 0.0 | 1.0 | 0.00 | 0.31 | 0.00 | 97 | 1017.7 |
| 20260505231624 | 50 | 29 | 0.0 | 1.0 | 0.00 | 0.31 | 0.00 | 97 | 1017.7 |
| 20260505231503 | 50 | 29 | 0.0 | 1.0 | 0.00 | 0.31 | 0.00 | 97 | 1017.6 |
| 20260505231403 | 50 | 29 | 0.0 | 1.0 | 0.00 | 0.31 | 0.00 | 97 | 1017.6 |
| 20260505231324 | 50 | 29 | 0.0 | 1.0 | 0.00 | 0.31 | 0.00 | 97 | 1017.6 |
| 20260505231203 | 50 | 29 | 0.0 | 1.0 | 0.00 | 0.31 | 0.00 | 97 | 1017.7 |
| 20260505231102 | 50 | 29 | 0.0 | 1.0 | 0.00 | 0.31 | 0.00 | 97 | 1017.8 |
| 20260505231024 | 50 | 29 | 0.0 | 1.0 | 0.00 | 0.31 | 0.00 | 97 | 1017.8 |
| 20260505230903 | 50 | 29 | 0.0 | 1.0 | 0.00 | 0.31 | 0.00 | 97 | 1017.7 |
| 20260505230803 | 50 | 29 | 0.0 | 1.0 | 0.00 | 0.31 | 0.00 | 97 | 1017.8 |
| 20260505230702 | 50 | 29 | 0.0 | 1.0 | 0.00 | 0.31 | 0.00 | 97 | 1017.7 |
| 20260505230602 | 50 | 29 | 0.0 | 1.0 | 0.00 | 0.31 | 0.00 | 97 | 1017.6 |
| 20260505230524 | 50 | 29 | 0.0 | 1.0 | 0.00 | 0.31 | 0.00 | 97 | 1017.6 |
| 20260505230403 | 50 | 29 | 0.0 | 1.0 | 0.00 | 0.31 | 0.00 | 97 | 1017.6 |
| 20260505230303 | 50 | 29 | 0.0 | 1.0 | 0.00 | 0.31 | 0.00 | 97 | 1017.6 |
| 20260505230203 | 50 | 29 | 0.0 | 1.0 | 0.00 | 0.31 | 0.00 | 97 | 1017.6 |
| 20260505230003 | 50 | 29 | 0.0 | 1.0 | 0.00 | 0.31 | 0.00 | 97 | 1017.6 |
| 20260505225903 | 50 | 29 | 0.0 | 1.0 | 0.00 | 0.31 | 0.00 | 97 | 1017.6 |
| 20260505225824 | 50 | 29 | 0.0 | 1.0 | 0.00 | 0.31 | 0.00 | 97 | 1017.7 |
| 20260505225702 | 50 | 29 | 0.0 | 1.0 | 0.00 | 0.31 | 0.00 | 97 | 1017.8 |
| 20260505225624 | 50 | 29 | 0.0 | 1.0 | 0.00 | 0.31 | 0.00 | 97 | 1017.6 |
| 20260505225503 | 50 | 24 | 0.0 | 1.0 | 0.00 | 0.31 | 0.00 | 97 | 1017.6 |
| 20260505225403 | 50 | 22 | 0.0 | 1.0 | 0.00 | 0.31 | 0.00 | 97 | 1017.6 |
| 20260505225305 | 50 | 21 | 0.0 | 1.0 | 0.00 | 0.31 | 0.00 | 97 | 1017.8 |
| 20260505225203 | 50 | 20 | 0.0 | 1.0 | 0.00 | 0.31 | 0.00 | 97 | 1017.8 |
| 20260505225103 | 50 | 19 | 0.0 | 1.0 | 0.00 | 0.31 | 0.00 | 97 | 1017.7 |
| 20260505225003 | 50 | 19 | 0.0 | 1.0 | 0.00 | 0.31 | 0.00 | 97 | 1017.7 |
| 20260505224903 | 50 | 17 | 0.0 | 1.0 | 0.00 | 0.31 | 0.00 | 97 | 1017.7 |
| 20260505224803 | 50 | 15 | 0.0 | 1.0 | 0.00 | 0.31 | 0.00 | 97 | 1017.7 |
| 20260505224703 | 51 | 15 | 0.0 | 1.0 | 0.00 | 0.31 | 0.00 | 97 | 1017.8 |
| 20260505224603 | 51 | 15 | 1.0 | 1.0 | 0.00 | 0.31 | 0.00 | 97 | 1017.8 |
| 20260505224524 | 51 | 15 | 1.0 | 1.0 | 0.00 | 0.31 | 0.00 | 97 | 1017.8 |
| 20260505224403 | 51 | 15 | 0.0 | 1.0 | 0.00 | 0.31 | 0.00 | 97 | 1017.8 |
| 20260505224303 | 51 | 15 | 0.0 | 1.0 | 0.00 | 0.31 | 0.00 | 97 | 1017.6 |
| 20260505224203 | 51 | 15 | 0.0 | 1.0 | 0.00 | 0.31 | 0.00 | 97 | 1017.8 |
| 20260505224103 | 51 | 15 | 0.0 | 1.0 | 0.00 | 0.31 | 0.00 | 97 | 1017.7 |
| 20260505224003 | 51 | 15 | 0.0 | 1.0 | 0.00 | 0.31 | 0.00 | 97 | 1017.8 |
| 20260505223903 | 51 | 15 | 0.0 | 1.0 | 0.00 | 0.31 | 0.00 | 97 | 1017.8 |
| 20260505223824 | 51 | 15 | 0.0 | 1.0 | 0.00 | 0.31 | 0.00 | 97 | 1017.8 |
| 20260505223703 | 51 | 15 | 0.0 | 1.0 | 0.00 | 0.31 | 0.00 | 97 | 1017.7 |
| 20260505223602 | 51 | 14 | 0.0 | 1.0 | 0.00 | 0.31 | 0.00 | 97 | 1017.9 |
| 20260505223502 | 51 | 14 | 0.0 | 1.0 | 0.00 | 0.31 | 0.00 | 97 | 1017.8 |
| 20260505223402 | 51 | 14 | 0.0 | 1.0 | 0.00 | 0.31 | 0.00 | 97 | 1017.8 |
| 20260505223303 | 51 | 14 | 0.0 | 1.0 | 0.00 | 0.31 | 0.00 | 97 | 1017.9 |
| 20260505223203 | 51 | 13 | 0.0 | 1.0 | 0.00 | 0.31 | 0.00 | 96 | 1017.8 |
| 20260505223102 | 51 | 12 | 0.0 | 1.0 | 0.00 | 0.31 | 0.00 | 96 | 1017.8 |
| 20260505223024 | 51 | 12 | 0.0 | 1.0 | 0.00 | 0.31 | 0.00 | 96 | 1017.8 |
| 20260505222903 | 51 | 12 | 0.0 | 1.0 | 0.00 | 0.31 | 0.00 | 96 | 1017.7 |
| 20260505222803 | 51 | 12 | 0.0 | 1.0 | 0.00 | 0.31 | 0.00 | 96 | 1017.8 |
| 20260505222703 | 51 | 12 | 0.0 | 1.0 | 0.00 | 0.31 | 0.00 | 96 | 1017.8 |
| 20260505222603 | 51 | 12 | 0.0 | 1.0 | 0.00 | 0.31 | 0.00 | 96 | 1017.8 |
| 20260505222503 | 51 | 12 | 0.0 | 1.0 | 0.00 | 0.31 | 0.00 | 96 | 1017.7 |
| 20260505222403 | 51 | 12 | 0.0 | 1.0 | 0.00 | 0.31 | 0.00 | 96 | 1017.8 |
| 20260505222305 | 51 | 12 | 0.0 | 1.0 | 0.00 | 0.31 | 0.00 | 96 | 1017.8 |
| 20260505222224 | 50 | 12 | 0.0 | 1.0 | 0.00 | 0.31 | 0.00 | 96 | 1017.6 |
| 20260505222103 | 50 | 12 | 0.0 | 1.0 | 0.00 | 0.31 | 0.00 | 96 | 1017.6 |
| 20260505222003 | 50 | 0 | 0.0 | 0.0 | 0.00 | 0.31 | 0.00 | 96 | 1017.7 |
| 20260505221902 | 50 | 0 | 0.0 | 0.0 | 0.00 | 0.31 | 0.00 | 96 | 1017.8 |
| 20260505221803 | 50 | 0 | 0.0 | 0.0 | 0.00 | 0.31 | 0.00 | 96 | 1017.7 |
| 20260505221703 | 50 | 0 | 0.0 | 0.0 | 0.00 | 0.31 | 0.00 | 96 | 1017.9 |
| 20260505221603 | 50 | 0 | 0.0 | 0.0 | 0.00 | 0.31 | 0.00 | 96 | 1017.7 |
| 20260505221502 | 50 | 0 | 0.0 | 0.0 | 0.00 | 0.31 | 0.00 | 96 | 1017.8 |
| 20260505221403 | 50 | 0 | 0.0 | 0.0 | 0.00 | 0.31 | 0.00 | 96 | 1017.8 |
| 20260505221303 | 50 | 0 | 0.0 | 0.0 | 0.00 | 0.31 | 0.00 | 96 | 1017.8 |
| 20260505221203 | 50 | 0 | 0.0 | 0.0 | 0.00 | 0.31 | 0.00 | 96 | 1017.6 |
| 20260505221103 | 50 | 0 | 0.0 | 0.0 | 0.00 | 0.31 | 0.00 | 96 | 1017.6 |
| 20260505221024 | 50 | 0 | 0.0 | 0.0 | 0.00 | 0.31 | 0.00 | 96 | 1017.6 |
| 20260505220903 | 50 | 0 | 0.0 | 0.0 | 0.00 | 0.31 | 0.00 | 96 | 1017.8 |
| 20260505220803 | 50 | 0 | 0.0 | 0.0 | 0.00 | 0.31 | 0.00 | 96 | 1017.8 |
| 20260505220724 | 50 | 0 | 0.0 | 0.0 | 0.00 | 0.31 | 0.00 | 96 | 1017.8 |
| 20260505220603 | 50 | 0 | 0.0 | 0.0 | 0.00 | 0.31 | 0.00 | 96 | 1017.8 |
| 20260505220503 | 50 | 0 | 0.0 | 0.0 | 0.00 | 0.31 | 0.00 | 95 | 1017.8 |
| 20260505220403 | 50 | 0 | 0.0 | 0.0 | 0.00 | 0.31 | 0.00 | 95 | 1017.7 |
| 20260505220303 | 50 | 0 | 0.0 | 0.0 | 0.00 | 0.31 | 0.00 | 95 | 1017.7 |
| 20260505220203 | 50 | 0 | 0.0 | 0.0 | 0.00 | 0.31 | 0.00 | 95 | 1017.8 |
| 20260505220003 | 50 | 0 | 0.0 | 0.0 | 0.00 | 0.31 | 0.00 | 95 | 1017.9 |
| 20260505215903 | 50 | 0 | 0.0 | 0.0 | 0.00 | 0.31 | 0.31 | 95 | 1017.7 |
| 20260505215803 | 50 | 0 | 0.0 | 0.0 | 0.00 | 0.31 | 0.31 | 95 | 1017.7 |
| 20260505215703 | 50 | 0 | 0.0 | 0.0 | 0.00 | 0.31 | 0.31 | 95 | 1017.6 |
| 20260505215603 | 50 | 0 | 0.0 | 0.0 | 0.00 | 0.31 | 0.31 | 95 | 1017.7 |
| 20260505215524 | 50 | 0 | 0.0 | 0.0 | 0.00 | 0.31 | 0.31 | 95 | 1017.8 |
| 20260505215403 | 50 | 0 | 0.0 | 0.0 | 0.00 | 0.31 | 0.31 | 95 | 1017.6 |
| 20260505215305 | 50 | 0 | 0.0 | 0.0 | 0.00 | 0.31 | 0.31 | 95 | 1017.8 |
| 20260505215203 | 50 | 0 | 0.0 | 0.0 | 0.00 | 0.31 | 0.31 | 95 | 1017.7 |
| 20260505215103 | 51 | 0 | 0.0 | 0.0 | 0.00 | 0.31 | 0.31 | 95 | 1017.7 |
| 20260505215003 | 51 | 0 | 0.0 | 0.0 | 0.00 | 0.31 | 0.31 | 95 | 1017.7 |
| 20260505214903 | 51 | 0 | 0.0 | 0.0 | 0.00 | 0.31 | 0.31 | 95 | 1017.6 |
| 20260505214824 | 51 | 0 | 0.0 | 0.0 | 0.00 | 0.31 | 0.31 | 95 | 1017.6 |
| 20260505214703 | 51 | 0 | 0.0 | 0.0 | 0.00 | 0.31 | 0.31 | 95 | 1017.7 |
| 20260505214603 | 51 | 0 | 0.0 | 0.0 | 0.00 | 0.31 | 0.31 | 95 | 1017.7 |
| 20260505214524 | 51 | 0 | 0.0 | 0.0 | 0.00 | 0.31 | 0.31 | 95 | 1017.8 |
| 20260505214403 | 51 | 0 | 0.0 | 0.0 | 0.00 | 0.31 | 0.31 | 95 | 1017.7 |
| 20260505214303 | 51 | 0 | 0.0 | 0.0 | 0.00 | 0.31 | 0.31 | 95 | 1017.7 |
| 20260505214203 | 51 | 0 | 0.0 | 0.0 | 0.00 | 0.31 | 0.31 | 95 | 1017.8 |
| 20260505214124 | 51 | 0 | 0.0 | 0.0 | 0.00 | 0.31 | 0.31 | 95 | 1017.8 |
| 20260505214003 | 51 | 0 | 0.0 | 0.0 | 0.00 | 0.31 | 0.31 | 95 | 1017.7 |
| 20260505213903 | 51 | 0 | 0.0 | 0.0 | 0.00 | 0.31 | 0.31 | 94 | 1017.6 |
| 20260505213824 | 51 | 0 | 0.0 | 0.0 | 0.00 | 0.31 | 0.31 | 94 | 1017.8 |
| 20260505213703 | 51 | 0 | 0.0 | 0.0 | 0.00 | 0.31 | 0.31 | 94 | 1017.7 |
| 20260505213603 | 51 | 0 | 0.0 | 0.0 | 0.00 | 0.31 | 0.31 | 94 | 1017.7 |
| 20260505213503 | 51 | 0 | 0.0 | 0.0 | 0.00 | 0.31 | 0.31 | 94 | 1017.7 |
| 20260505213403 | 51 | 0 | 0.0 | 0.0 | 0.00 | 0.31 | 0.31 | 94 | 1018.0 |
| 20260505213303 | 51 | 0 | 0.0 | 0.0 | 0.00 | 0.31 | 0.31 | 94 | 1017.7 |
| 20260505213224 | 51 | 0 | 0.0 | 0.0 | 0.00 | 0.31 | 0.31 | 94 | 1017.7 |
| 20260505213103 | 51 | 0 | 0.0 | 0.0 | 0.00 | 0.31 | 0.31 | 94 | 1017.9 |
| 20260505213024 | 51 | 0 | 0.0 | 0.0 | 0.00 | 0.31 | 0.31 | 94 | 1017.9 |
| 20260505212903 | 51 | 0 | 0.0 | 0.0 | 0.00 | 0.31 | 0.31 | 94 | 1017.9 |
| 20260505212803 | 51 | 0 | 0.0 | 0.0 | 0.00 | 0.31 | 0.31 | 94 | 1017.7 |
| 20260505212703 | 51 | 0 | 0.0 | 0.0 | 0.00 | 0.31 | 0.31 | 94 | 1017.7 |
| 20260505212624 | 51 | 0 | 0.0 | 0.0 | 0.00 | 0.31 | 0.31 | 94 | 1017.8 |
| 20260505212503 | 52 | 0 | 0.0 | 0.0 | 0.00 | 0.31 | 0.31 | 94 | 1017.7 |
| 20260505212402 | 52 | 12 | 0.0 | 1.0 | 0.00 | 0.31 | 0.31 | 94 | 1017.8 |
| 20260505212305 | 52 | 12 | 0.0 | 1.0 | 0.00 | 0.31 | 0.31 | 94 | 1017.9 |
| 20260505212203 | 52 | 12 | 0.0 | 1.0 | 0.00 | 0.31 | 0.31 | 94 | 1017.7 |
| 20260505212103 | 52 | 12 | 0.0 | 1.0 | 0.00 | 0.31 | 0.31 | 94 | 1017.8 |
| 20260505212003 | 52 | 12 | 0.0 | 1.0 | 0.00 | 0.31 | 0.31 | 94 | 1017.8 |
| 20260505211903 | 52 | 12 | 0.0 | 1.0 | 0.00 | 0.31 | 0.31 | 94 | 1017.7 |
| 20260505211803 | 52 | 12 | 0.0 | 1.0 | 0.00 | 0.31 | 0.31 | 94 | 1017.8 |
| 20260505211703 | 52 | 12 | 0.0 | 1.0 | 0.00 | 0.31 | 0.31 | 94 | 1017.8 |
| 20260505211603 | 52 | 12 | 0.0 | 1.0 | 0.00 | 0.31 | 0.31 | 94 | 1017.9 |
| 20260505211503 | 52 | 12 | 0.0 | 1.0 | 0.00 | 0.31 | 0.31 | 93 | 1017.9 |
| 20260505211403 | 52 | 11 | 0.0 | 1.0 | 0.00 | 0.31 | 0.31 | 93 | 1017.7 |
| 20260505211303 | 52 | 0 | 0.0 | 0.0 | 0.00 | 0.31 | 0.31 | 93 | 1017.7 |
| 20260505211203 | 52 | 0 | 0.0 | 0.0 | 0.00 | 0.31 | 0.31 | 93 | 1017.9 |
| 20260505211103 | 52 | 0 | 0.0 | 0.0 | 0.00 | 0.31 | 0.31 | 93 | 1017.9 |
| 20260505211003 | 52 | 0 | 0.0 | 0.0 | 0.00 | 0.31 | 0.31 | 93 | 1017.8 |
| 20260505210903 | 52 | 0 | 0.0 | 0.0 | 0.00 | 0.31 | 0.31 | 93 | 1017.7 |
| 20260505210803 | 53 | 0 | 0.0 | 0.0 | 0.00 | 0.31 | 0.31 | 93 | 1017.7 |
| 20260505210703 | 53 | 0 | 0.0 | 0.0 | 0.00 | 0.31 | 0.31 | 93 | 1017.7 |
| 20260505210603 | 53 | 0 | 0.0 | 0.0 | 0.00 | 0.31 | 0.31 | 93 | 1017.7 |
| 20260505210524 | 53 | 0 | 0.0 | 0.0 | 0.00 | 0.31 | 0.31 | 93 | 1017.8 |
| 20260505210403 | 53 | 0 | 0.0 | 0.0 | 0.00 | 0.31 | 0.31 | 93 | 1017.7 |
| 20260505210303 | 53 | 0 | 0.0 | 0.0 | 0.00 | 0.31 | 0.31 | 93 | 1017.7 |
| 20260505210203 | 53 | 0 | 0.0 | 0.0 | 0.00 | 0.31 | 0.31 | 93 | 1017.8 |
| 20260505210124 | 53 | 0 | 0.0 | 0.0 | 0.00 | 0.31 | 0.31 | 93 | 1017.7 |
| 20260505210003 | 53 | 0 | 0.0 | 0.0 | 0.00 | 0.31 | 0.31 | 93 | 1017.7 |
| 20260505205903 | 53 | 0 | 0.0 | 0.0 | 0.00 | 0.31 | 0.31 | 93 | 1017.9 |
| 20260505205803 | 53 | 0 | 0.0 | 0.0 | 0.00 | 0.31 | 0.31 | 92 | 1017.7 |
| 20260505205703 | 53 | 0 | 0.0 | 0.0 | 0.00 | 0.31 | 0.31 | 92 | 1017.7 |
| 20260505205603 | 53 | 0 | 0.0 | 0.0 | 0.00 | 0.31 | 0.31 | 92 | 1017.7 |
| 20260505205503 | 53 | 0 | 0.0 | 0.0 | 0.00 | 0.31 | 0.31 | 92 | 1017.7 |
| 20260505205403 | 53 | 0 | 0.0 | 0.0 | 0.00 | 0.31 | 0.31 | 92 | 1017.7 |
| 20260505205305 | 53 | 0 | 0.0 | 0.0 | 0.00 | 0.31 | 0.31 | 92 | 1017.7 |
| 20260505205203 | 53 | 0 | 0.0 | 0.0 | 0.00 | 0.31 | 0.31 | 92 | 1017.9 |
| 20260505205103 | 53 | 0 | 0.0 | 0.0 | 0.00 | 0.31 | 0.31 | 92 | 1017.8 |
| 20260505205024 | 53 | 0 | 0.0 | 0.0 | 0.00 | 0.31 | 0.31 | 92 | 1017.7 |
| 20260505204903 | 53 | 0 | 0.0 | 0.0 | 0.00 | 0.31 | 0.31 | 92 | 1017.8 |
| 20260505204824 | 53 | 0 | 0.0 | 0.0 | 0.00 | 0.31 | 0.31 | 92 | 1017.9 |
| 20260505204703 | 53 | 0 | 0.0 | 0.0 | 0.00 | 0.31 | 0.31 | 92 | 1017.7 |
| 20260505204603 | 53 | 0 | 0.0 | 0.0 | 0.00 | 0.31 | 0.31 | 92 | 1017.8 |
| 20260505204503 | 53 | 0 | 0.0 | 0.0 | 0.00 | 0.31 | 0.31 | 92 | 1017.7 |
| 20260505204403 | 53 | 0 | 0.0 | 0.0 | 0.00 | 0.31 | 0.31 | 92 | 1017.8 |
| 20260505204303 | 53 | 0 | 0.0 | 0.0 | 0.00 | 0.31 | 0.31 | 92 | 1017.7 |
| 20260505204203 | 53 | 0 | 0.0 | 0.0 | 0.00 | 0.31 | 0.31 | 92 | 1017.7 |
| 20260505204124 | 53 | 0 | 0.0 | 0.0 | 0.00 | 0.31 | 0.31 | 92 | 1017.7 |
| 20260505204024 | 53 | 0 | 0.0 | 0.0 | 0.00 | 0.31 | 0.31 | 92 | 1017.6 |
| 20260505203903 | 53 | 0 | 0.0 | 0.0 | 0.00 | 0.31 | 0.31 | 92 | 1017.7 |
| 20260505203824 | 53 | 0 | 0.0 | 0.0 | 0.00 | 0.31 | 0.31 | 92 | 1017.7 |
| 20260505203703 | 54 | 0 | 0.0 | 0.0 | 0.00 | 0.31 | 0.31 | 91 | 1017.9 |
| 20260505203603 | 54 | 0 | 0.0 | 0.0 | 0.00 | 0.31 | 0.31 | 91 | 1017.9 |
| 20260505203524 | 54 | 0 | 0.0 | 0.0 | 0.00 | 0.31 | 0.31 | 91 | 1017.9 |
| 20260505203403 | 54 | 0 | 0.0 | 0.0 | 0.00 | 0.31 | 0.31 | 91 | 1017.8 |
| 20260505203303 | 54 | 0 | 0.0 | 0.0 | 0.00 | 0.31 | 0.31 | 91 | 1017.8 |
| 20260505203203 | 54 | 0 | 0.0 | 0.0 | 0.00 | 0.31 | 0.31 | 91 | 1017.8 |
| 20260505203103 | 54 | 0 | 0.0 | 0.0 | 0.00 | 0.31 | 0.31 | 91 | 1017.6 |
| 20260505203003 | 54 | 0 | 0.0 | 0.0 | 0.00 | 0.31 | 0.31 | 91 | 1017.8 |
| 20260505202903 | 54 | 0 | 0.0 | 0.0 | 0.00 | 0.31 | 0.31 | 91 | 1017.6 |
| 20260505202803 | 54 | 0 | 0.0 | 0.0 | 0.00 | 0.31 | 0.31 | 91 | 1017.7 |
| 20260505202703 | 54 | 11 | 0.0 | 1.0 | 0.00 | 0.31 | 0.31 | 91 | 1017.7 |
| 20260505202603 | 54 | 11 | 0.0 | 1.0 | 0.00 | 0.31 | 0.31 | 91 | 1017.7 |
| 20260505202524 | 54 | 11 | 0.0 | 1.0 | 0.00 | 0.31 | 0.31 | 91 | 1017.7 |
| 20260505202424 | 54 | 11 | 0.0 | 1.0 | 0.00 | 0.31 | 0.31 | 91 | 1017.7 |
| 20260505202306 | 54 | 11 | 0.0 | 1.0 | 0.00 | 0.31 | 0.31 | 90 | 1017.6 |
| 20260505202203 | 54 | 11 | 0.0 | 1.0 | 0.00 | 0.31 | 0.31 | 90 | 1017.7 |
| 20260505202103 | 54 | 11 | 0.0 | 1.0 | 0.00 | 0.31 | 0.31 | 90 | 1017.6 |
| 20260505202003 | 54 | 11 | 1.0 | 1.0 | 0.00 | 0.31 | 0.31 | 90 | 1017.7 |
| 20260505201903 | 54 | 11 | 1.0 | 1.0 | 0.00 | 0.31 | 0.31 | 90 | 1017.7 |
| 20260505201803 | 54 | 11 | 1.0 | 1.0 | 0.00 | 0.31 | 0.31 | 90 | 1017.8 |
| 20260505201703 | 54 | 11 | 1.0 | 1.0 | 0.00 | 0.31 | 0.31 | 90 | 1017.7 |
| 20260505201603 | 54 | 11 | 1.0 | 1.0 | 0.00 | 0.31 | 0.31 | 90 | 1017.5 |
| 20260505201503 | 54 | 11 | 1.0 | 1.0 | 0.00 | 0.31 | 0.31 | 90 | 1017.5 |
| 20260505201403 | 54 | 11 | 1.0 | 1.0 | 0.00 | 0.31 | 0.31 | 90 | 1017.6 |
| 20260505201303 | 54 | 11 | 1.0 | 1.0 | 0.00 | 0.31 | 0.31 | 90 | 1017.5 |
| 20260505201203 | 54 | 11 | 1.0 | 1.0 | 0.00 | 0.31 | 0.31 | 90 | 1017.6 |
| 20260505201103 | 54 | 11 | 1.0 | 1.0 | 0.00 | 0.31 | 0.31 | 90 | 1017.5 |
| 20260505201003 | 54 | 11 | 1.0 | 1.0 | 0.00 | 0.31 | 0.31 | 90 | 1017.5 |
| 20260505200903 | 54 | 11 | 1.0 | 1.0 | 0.00 | 0.31 | 0.31 | 90 | 1017.3 |
| 20260505200803 | 54 | 11 | 0.0 | 1.0 | 0.00 | 0.31 | 0.31 | 90 | 1017.6 |
| 20260505200703 | 54 | 11 | 0.0 | 1.0 | 0.00 | 0.31 | 0.31 | 90 | 1017.4 |
| 20260505200603 | 54 | 11 | 1.0 | 2.0 | 0.00 | 0.31 | 0.31 | 90 | 1017.5 |
| 20260505200524 | 54 | 11 | 1.0 | 2.0 | 0.00 | 0.31 | 0.31 | 90 | 1017.5 |
| 20260505200403 | 54 | 11 | 0.0 | 2.0 | 0.00 | 0.31 | 0.31 | 90 | 1017.3 |
| 20260505200324 | 54 | 11 | 0.0 | 2.0 | 0.00 | 0.31 | 0.31 | 90 | 1017.3 |
| 20260505200203 | 54 | 11 | 0.0 | 2.0 | 0.00 | 0.31 | 0.31 | 90 | 1017.5 |
| 20260505200003 | 54 | 11 | 0.0 | 2.0 | 0.00 | 0.31 | 0.31 | 90 | 1017.4 |
| 20260505195903 | 54 | 11 | 0.0 | 2.0 | 0.00 | 0.31 | 0.31 | 90 | 1017.4 |
| 20260505195803 | 54 | 11 | 0.0 | 2.0 | 0.00 | 0.31 | 0.31 | 90 | 1017.3 |
| 20260505195703 | 54 | 11 | 0.0 | 2.0 | 0.00 | 0.31 | 0.31 | 90 | 1017.5 |
| 20260505195603 | 54 | 11 | 0.0 | 2.0 | 0.00 | 0.31 | 0.31 | 90 | 1017.3 |
| 20260505195503 | 54 | 11 | 0.0 | 1.0 | 0.00 | 0.31 | 0.31 | 90 | 1017.3 |
| 20260505195403 | 54 | 11 | 0.0 | 1.0 | 0.00 | 0.31 | 0.31 | 90 | 1017.4 |
| 20260505195305 | 54 | 11 | 0.0 | 1.0 | 0.00 | 0.31 | 0.31 | 90 | 1017.4 |
| 20260505195203 | 54 | 11 | 0.0 | 1.0 | 0.00 | 0.31 | 0.31 | 90 | 1017.2 |
| 20260505195103 | 54 | 11 | 0.0 | 1.0 | 0.00 | 0.31 | 0.31 | 89 | 1017.2 |
| 20260505195003 | 54 | 11 | 0.0 | 1.0 | 0.00 | 0.31 | 0.31 | 89 | 1017.3 |
| 20260505194903 | 54 | 11 | 0.0 | 1.0 | 0.00 | 0.31 | 0.31 | 89 | 1017.4 |
| 20260505194803 | 54 | 11 | 0.0 | 1.0 | 0.00 | 0.31 | 0.31 | 89 | 1017.3 |
| 20260505194703 | 54 | 11 | 0.0 | 1.0 | 0.00 | 0.31 | 0.31 | 89 | 1017.3 |
| 20260505194603 | 54 | 11 | 0.0 | 1.0 | 0.00 | 0.31 | 0.31 | 89 | 1017.4 |
| 20260505194524 | 54 | 11 | 0.0 | 1.0 | 0.00 | 0.31 | 0.31 | 89 | 1017.4 |
| 20260505194424 | 54 | 11 | 0.0 | 1.0 | 0.00 | 0.31 | 0.31 | 89 | 1017.3 |
| 20260505194303 | 54 | 10 | 0.0 | 2.0 | 0.00 | 0.31 | 0.31 | 89 | 1017.3 |
| 20260505194203 | 54 | 10 | 0.0 | 2.0 | 0.00 | 0.31 | 0.31 | 89 | 1017.3 |
| 20260505194103 | 54 | 10 | 0.0 | 2.0 | 0.00 | 0.31 | 0.31 | 88 | 1017.3 |
| 20260505194003 | 54 | 10 | 0.0 | 2.0 | 0.00 | 0.32 | 0.31 | 88 | 1017.2 |
| 20260505193903 | 54 | 9 | 0.0 | 2.0 | 0.00 | 0.32 | 0.31 | 88 | 1017.1 |
| 20260505193824 | 54 | 9 | 1.0 | 2.0 | 0.00 | 0.32 | 0.31 | 88 | 1017.2 |
| 20260505193703 | 54 | 9 | 1.0 | 2.0 | 0.00 | 0.32 | 0.31 | 88 | 1017.2 |
| 20260505193603 | 54 | 9 | 1.0 | 2.0 | 0.00 | 0.32 | 0.31 | 88 | 1017.2 |
| 20260505193503 | 54 | 9 | 1.0 | 2.0 | 0.00 | 0.32 | 0.31 | 88 | 1017.2 |
| 20260505193403 | 54 | 9 | 1.0 | 2.0 | 0.00 | 0.32 | 0.31 | 88 | 1017.2 |
| 20260505193303 | 54 | 8 | 1.0 | 1.0 | 0.00 | 0.32 | 0.31 | 88 | 1017.2 |
| 20260505193203 | 54 | 8 | 1.0 | 2.0 | 0.00 | 0.32 | 0.31 | 88 | 1017.3 |
| 20260505193103 | 54 | 8 | 1.0 | 2.0 | 0.00 | 0.32 | 0.31 | 88 | 1017.4 |
| 20260505193003 | 54 | 8 | 1.0 | 2.0 | 0.00 | 0.32 | 0.31 | 87 | 1017.2 |
| 20260505192903 | 55 | 6 | 1.0 | 3.0 | 0.00 | 0.32 | 0.31 | 87 | 1017.2 |
| 20260505192803 | 55 | 6 | 1.0 | 3.0 | 0.00 | 0.32 | 0.31 | 87 | 1017.2 |
| 20260505192703 | 55 | 7 | 1.0 | 3.0 | 0.00 | 0.32 | 0.31 | 87 | 1017.1 |
| 20260505192603 | 55 | 7 | 1.0 | 3.0 | 0.00 | 0.32 | 0.31 | 87 | 1017.0 |
| 20260505192503 | 55 | 7 | 1.0 | 3.0 | 0.00 | 0.32 | 0.31 | 87 | 1017.1 |
| 20260505192403 | 55 | 7 | 1.0 | 3.0 | 0.00 | 0.32 | 0.31 | 87 | 1017.1 |
| 20260505192305 | 55 | 7 | 1.0 | 3.0 | 0.00 | 0.32 | 0.31 | 87 | 1017.1 |
| 20260505192203 | 55 | 7 | 1.0 | 3.0 | 0.00 | 0.32 | 0.31 | 87 | 1017.0 |
| 20260505192103 | 55 | 8 | 1.0 | 3.0 | 0.00 | 0.32 | 0.31 | 87 | 1017.2 |
| 20260505192003 | 55 | 8 | 1.0 | 3.0 | 0.00 | 0.32 | 0.31 | 87 | 1017.2 |
| 20260505191903 | 55 | 7 | 1.0 | 3.0 | 0.00 | 0.32 | 0.31 | 87 | 1017.2 |
| 20260505191803 | 55 | 8 | 1.0 | 2.0 | 0.00 | 0.32 | 0.31 | 87 | 1017.1 |
| 20260505191703 | 55 | 8 | 1.0 | 2.0 | 0.00 | 0.32 | 0.31 | 87 | 1017.0 |
| 20260505191603 | 55 | 7 | 1.0 | 2.0 | 0.00 | 0.32 | 0.31 | 87 | 1017.2 |
| 20260505191524 | 55 | 7 | 1.0 | 2.0 | 0.00 | 0.32 | 0.31 | 87 | 1017.2 |
| 20260505191403 | 55 | 7 | 1.0 | 2.0 | 0.00 | 0.32 | 0.31 | 87 | 1017.1 |
| 20260505191303 | 55 | 6 | 1.0 | 2.0 | 0.00 | 0.32 | 0.31 | 87 | 1017.1 |
| 20260505191224 | 55 | 6 | 1.0 | 2.0 | 0.00 | 0.32 | 0.31 | 87 | 1017.1 |
| 20260505191103 | 55 | 5 | 1.0 | 2.0 | 0.00 | 0.32 | 0.31 | 87 | 1017.0 |
| 20260505191003 | 55 | 4 | 1.0 | 2.0 | 0.00 | 0.32 | 0.31 | 87 | 1017.1 |
| 20260505190903 | 55 | 4 | 1.0 | 2.0 | 0.00 | 0.32 | 0.31 | 86 | 1017.2 |
| 20260505190403 | 55 | 6 | 1.0 | 4.0 | 0.00 | 0.32 | 0.31 | 86 | 1016.9 |
| 20260505190324 | 55 | 6 | 1.0 | 4.0 | 0.00 | 0.32 | 0.31 | 86 | 1016.9 |
| 20260505190203 | 55 | 6 | 1.0 | 4.0 | 0.00 | 0.32 | 0.31 | 86 | 1016.9 |
| 20260505190003 | 55 | 6 | 1.0 | 4.0 | 0.00 | 0.32 | 0.31 | 86 | 1017.3 |
| 20260505185903 | 55 | 6 | 1.0 | 4.0 | 0.00 | 0.32 | 0.31 | 86 | 1017.3 |
| 20260505185824 | 55 | 6 | 1.0 | 4.0 | 0.00 | 0.32 | 0.31 | 86 | 1017.1 |
| 20260505185703 | 55 | 6 | 1.0 | 4.0 | 0.00 | 0.32 | 0.31 | 86 | 1017.0 |
| 20260505185603 | 55 | 5 | 1.0 | 4.0 | 0.00 | 0.32 | 0.31 | 86 | 1017.0 |
| 20260505185503 | 55 | 5 | 1.0 | 3.0 | 0.00 | 0.32 | 0.31 | 86 | 1017.1 |
| 20260505185403 | 55 | 5 | 1.0 | 3.0 | 0.00 | 0.32 | 0.31 | 86 | 1017.0 |
| 20260505185305 | 55 | 5 | 1.0 | 3.0 | 0.00 | 0.32 | 0.31 | 86 | 1017.1 |
| 20260505185203 | 56 | 5 | 1.0 | 3.0 | 0.00 | 0.33 | 0.31 | 86 | 1017.1 |
| 20260505185103 | 56 | 5 | 1.0 | 3.0 | 0.00 | 0.33 | 0.31 | 86 | 1017.1 |
| 20260505185003 | 56 | 6 | 1.0 | 3.0 | 0.00 | 0.33 | 0.31 | 86 | 1017.2 |
| 20260505184903 | 56 | 6 | 1.0 | 2.0 | 0.00 | 0.33 | 0.31 | 85 | 1017.1 |
| 20260505184824 | 56 | 6 | 1.0 | 2.0 | 0.00 | 0.34 | 0.31 | 85 | 1017.1 |
| 20260505184724 | 56 | 6 | 1.0 | 2.0 | 0.00 | 0.34 | 0.31 | 85 | 1017.3 |
| 20260505184603 | 56 | 7 | 1.0 | 2.0 | 0.00 | 0.34 | 0.31 | 85 | 1016.9 |
| 20260505184503 | 56 | 6 | 1.0 | 3.0 | 0.00 | 0.34 | 0.31 | 86 | 1016.9 |
| 20260505184403 | 56 | 6 | 1.0 | 3.0 | 0.00 | 0.34 | 0.31 | 85 | 1017.0 |
| 20260505184303 | 56 | 6 | 1.0 | 3.0 | 0.00 | 0.34 | 0.31 | 85 | 1017.1 |
| 20260505184203 | 56 | 5 | 1.0 | 3.0 | 0.00 | 0.34 | 0.31 | 85 | 1017.1 |
| 20260505184103 | 56 | 6 | 2.0 | 4.0 | 0.00 | 0.34 | 0.31 | 85 | 1017.1 |
| 20260505184024 | 56 | 3 | 2.0 | 4.0 | 0.00 | 0.34 | 0.31 | 85 | 1017.2 |
| 20260505183903 | 56 | 4 | 2.0 | 4.0 | 0.00 | 0.34 | 0.31 | 85 | 1017.0 |
| 20260505183803 | 56 | 4 | 2.0 | 4.0 | 0.00 | 0.34 | 0.31 | 85 | 1017.0 |
| 20260505183703 | 56 | 3 | 2.0 | 4.0 | 0.00 | 0.34 | 0.31 | 85 | 1017.0 |
| 20260505183603 | 56 | 4 | 2.0 | 4.0 | 0.00 | 0.34 | 0.31 | 85 | 1017.0 |
| 20260505183503 | 56 | 4 | 2.0 | 4.0 | 0.00 | 0.34 | 0.31 | 85 | 1017.0 |
| 20260505183403 | 56 | 4 | 2.0 | 4.0 | 0.00 | 0.34 | 0.31 | 85 | 1017.0 |
| 20260505183303 | 56 | 358 | 2.0 | 6.0 | 0.00 | 0.34 | 0.31 | 85 | 1017.0 |
| 20260505183203 | 56 | 359 | 2.0 | 6.0 | 0.00 | 0.34 | 0.31 | 85 | 1016.9 |
| 20260505183103 | 56 | 358 | 2.0 | 6.0 | 0.00 | 0.34 | 0.31 | 85 | 1016.9 |
| 20260505183003 | 56 | 357 | 2.0 | 6.0 | 0.00 | 0.34 | 0.31 | 85 | 1016.9 |
| 20260505182924 | 56 | 354 | 2.0 | 6.0 | 0.00 | 0.34 | 0.31 | 84 | 1016.8 |
| 20260505182803 | 56 | 354 | 2.0 | 6.0 | 0.00 | 0.34 | 0.31 | 84 | 1017.0 |
| 20260505182703 | 56 | 354 | 2.0 | 6.0 | 0.00 | 0.34 | 0.31 | 84 | 1016.9 |
| 20260505182603 | 57 | 354 | 2.0 | 6.0 | 0.00 | 0.34 | 0.31 | 84 | 1016.9 |
| 20260505182524 | 57 | 353 | 2.0 | 6.0 | 0.00 | 0.34 | 0.31 | 84 | 1016.8 |
| 20260505182403 | 57 | 352 | 2.0 | 6.0 | 0.00 | 0.34 | 0.31 | 83 | 1016.8 |
| 20260505182324 | 57 | 355 | 2.0 | 4.0 | 0.00 | 0.34 | 0.31 | 83 | 1016.9 |
| 20260505182203 | 57 | 355 | 2.0 | 4.0 | 0.00 | 0.34 | 0.31 | 83 | 1016.8 |
| 20260505182124 | 57 | 355 | 2.0 | 4.0 | 0.00 | 0.34 | 0.31 | 83 | 1016.8 |
| 20260505182024 | 58 | 354 | 2.0 | 4.0 | 0.00 | 0.34 | 0.31 | 83 | 1016.9 |
| 20260505181903 | 58 | 357 | 2.0 | 4.0 | 0.00 | 0.34 | 0.31 | 83 | 1016.8 |
| 20260505181824 | 58 | 357 | 2.0 | 4.0 | 0.00 | 0.34 | 0.31 | 83 | 1016.8 |
| 20260505181704 | 58 | 358 | 2.0 | 4.0 | 0.00 | 0.34 | 0.31 | 82 | 1017.0 |
| 20260505181624 | 58 | 358 | 2.0 | 4.0 | 0.00 | 0.34 | 0.31 | 82 | 1017.0 |
| 20260505181503 | 58 | 358 | 2.0 | 4.0 | 0.00 | 0.34 | 0.31 | 82 | 1016.9 |
| 20260505181403 | 58 | 356 | 2.0 | 4.0 | 0.00 | 0.34 | 0.31 | 82 | 1016.8 |
| 20260505181303 | 58 | 354 | 3.0 | 7.0 | 0.00 | 0.34 | 0.31 | 82 | 1016.9 |
| 20260505181203 | 58 | 357 | 3.0 | 7.0 | 0.00 | 0.34 | 0.31 | 83 | 1016.7 |
| 20260505181103 | 58 | 357 | 3.0 | 7.0 | 0.00 | 0.34 | 0.31 | 83 | 1016.9 |
| 20260505181024 | 58 | 358 | 3.0 | 7.0 | 0.00 | 0.34 | 0.31 | 83 | 1016.8 |
| 20260505180903 | 58 | 358 | 3.0 | 7.0 | 0.00 | 0.34 | 0.31 | 83 | 1016.8 |
| 20260505180824 | 58 | 359 | 3.0 | 7.0 | 0.00 | 0.34 | 0.31 | 83 | 1016.9 |
| 20260505180724 | 58 | 358 | 3.0 | 7.0 | 0.00 | 0.34 | 0.31 | 83 | 1017.0 |
| 20260505180603 | 58 | 358 | 3.0 | 7.0 | 0.00 | 0.34 | 0.31 | 83 | 1016.7 |
| 20260505180503 | 58 | 357 | 3.0 | 7.0 | 0.00 | 0.34 | 0.31 | 83 | 1016.9 |
| 20260505180403 | 58 | 359 | 3.0 | 7.0 | 0.00 | 0.34 | 0.31 | 82 | 1016.8 |
| 20260505180324 | 58 | 359 | 3.0 | 7.0 | 0.00 | 0.34 | 0.31 | 82 | 1016.8 |
| 20260505180203 | 58 | 3 | 2.0 | 6.0 | 0.00 | 0.34 | 0.31 | 83 | 1016.9 |
| 20260505180003 | 57 | 3 | 2.0 | 6.0 | 0.00 | 0.34 | 0.31 | 83 | 1017.0 |
| 20260505175924 | 57 | 3 | 2.0 | 6.0 | 0.00 | 0.34 | 0.31 | 83 | 1017.0 |
| 20260505175803 | 57 | 1 | 2.0 | 6.0 | 0.00 | 0.34 | 0.31 | 83 | 1017.0 |
| 20260505175703 | 57 | 2 | 2.0 | 6.0 | 0.00 | 0.34 | 0.31 | 83 | 1016.8 |
| 20260505175603 | 57 | 3 | 2.0 | 6.0 | 0.00 | 0.34 | 0.31 | 83 | 1016.9 |
| 20260505175503 | 58 | 3 | 2.0 | 6.0 | 0.00 | 0.34 | 0.31 | 82 | 1016.9 |
| 20260505175424 | 58 | 3 | 2.0 | 4.0 | 0.00 | 0.34 | 0.31 | 82 | 1016.9 |
| 20260505175305 | 58 | 359 | 2.0 | 6.0 | 0.00 | 0.34 | 0.31 | 82 | 1016.8 |
| 20260505175203 | 58 | 358 | 2.0 | 6.0 | 0.00 | 0.34 | 0.31 | 82 | 1017.0 |
| 20260505175103 | 58 | 358 | 2.0 | 6.0 | 0.00 | 0.34 | 0.31 | 83 | 1017.0 |
| 20260505175003 | 58 | 358 | 2.0 | 6.0 | 0.00 | 0.34 | 0.31 | 83 | 1017.0 |
| 20260505174903 | 57 | 358 | 2.0 | 6.0 | 0.00 | 0.34 | 0.31 | 84 | 1017.1 |
| 20260505174803 | 57 | 357 | 2.0 | 6.0 | 0.00 | 0.34 | 0.31 | 84 | 1016.9 |
| 20260505174703 | 57 | 355 | 2.0 | 6.0 | 0.00 | 0.34 | 0.31 | 84 | 1017.2 |
| 20260505174603 | 57 | 357 | 2.0 | 6.0 | 0.00 | 0.34 | 0.31 | 85 | 1017.1 |
| 20260505174503 | 57 | 356 | 3.0 | 6.0 | 0.00 | 0.34 | 0.31 | 85 | 1017.1 |
| 20260505174403 | 57 | 356 | 3.0 | 6.0 | 0.00 | 0.34 | 0.31 | 85 | 1017.1 |
| 20260505174324 | 57 | 356 | 3.0 | 6.0 | 0.00 | 0.34 | 0.31 | 85 | 1017.1 |
| 20260505174224 | 57 | 357 | 3.0 | 6.0 | 0.00 | 0.34 | 0.31 | 84 | 1017.1 |
| 20260505174103 | 57 | 356 | 3.0 | 6.0 | 0.00 | 0.34 | 0.31 | 84 | 1016.9 |
| 20260505174003 | 57 | 355 | 3.0 | 6.0 | 0.00 | 0.34 | 0.31 | 84 | 1017.1 |
| 20260505173924 | 57 | 355 | 3.0 | 6.0 | 0.00 | 0.34 | 0.31 | 84 | 1017.1 |
| 20260505173803 | 57 | 356 | 3.0 | 6.0 | 0.00 | 0.34 | 0.31 | 84 | 1017.0 |
| 20260505173724 | 57 | 357 | 3.0 | 6.0 | 0.00 | 0.34 | 0.31 | 84 | 1016.9 |
| 20260505173624 | 57 | 357 | 3.0 | 6.0 | 0.00 | 0.34 | 0.31 | 84 | 1017.0 |
| 20260505173503 | 57 | 355 | 3.0 | 6.0 | 0.00 | 0.34 | 0.31 | 84 | 1016.9 |
| 20260505173403 | 57 | 356 | 2.0 | 6.0 | 0.00 | 0.34 | 0.31 | 83 | 1016.9 |
| 20260505173303 | 57 | 357 | 3.0 | 7.0 | 0.00 | 0.34 | 0.31 | 83 | 1017.1 |
| 20260505173203 | 57 | 360 | 3.0 | 7.0 | 0.00 | 0.34 | 0.31 | 83 | 1016.9 |
| 20260505173103 | 57 | 360 | 3.0 | 7.0 | 0.00 | 0.34 | 0.31 | 83 | 1017.0 |
| 20260505173003 | 57 | 358 | 3.0 | 7.0 | 0.00 | 0.34 | 0.31 | 83 | 1017.0 |
| 20260505172903 | 57 | 360 | 3.0 | 7.0 | 0.00 | 0.34 | 0.31 | 83 | 1017.0 |
| 20260505172803 | 58 | 354 | 3.0 | 8.0 | 0.00 | 0.34 | 0.31 | 83 | 1017.1 |
| 20260505172724 | 58 | 354 | 3.0 | 8.0 | 0.00 | 0.34 | 0.31 | 83 | 1017.1 |
| 20260505172603 | 58 | 357 | 4.0 | 8.0 | 0.00 | 0.34 | 0.31 | 83 | 1017.0 |
| 20260505172503 | 58 | 357 | 4.0 | 8.0 | 0.00 | 0.34 | 0.31 | 83 | 1016.8 |
| 20260505172403 | 58 | 356 | 4.0 | 8.0 | 0.00 | 0.34 | 0.31 | 83 | 1016.9 |
| 20260505172305 | 58 | 356 | 4.0 | 8.0 | 0.00 | 0.34 | 0.31 | 83 | 1016.9 |
| 20260505172203 | 58 | 357 | 4.0 | 8.0 | 0.00 | 0.34 | 0.31 | 83 | 1016.9 |
| 20260505172103 | 58 | 357 | 4.0 | 8.0 | 0.00 | 0.34 | 0.31 | 83 | 1016.9 |
| 20260505172003 | 58 | 358 | 4.0 | 8.0 | 0.00 | 0.35 | 0.31 | 83 | 1017.0 |
| 20260505171903 | 58 | 357 | 4.0 | 8.0 | 0.00 | 0.35 | 0.31 | 83 | 1016.8 |
| 20260505171803 | 58 | 356 | 4.0 | 8.0 | 0.00 | 0.35 | 0.31 | 83 | 1016.9 |
| 20260505171703 | 59 | 360 | 3.0 | 7.0 | 0.00 | 0.35 | 0.31 | 83 | 1016.9 |
| 20260505171603 | 59 | 360 | 3.0 | 7.0 | 0.00 | 0.35 | 0.31 | 82 | 1016.9 |
| 20260505171503 | 59 | 355 | 3.0 | 7.0 | 0.00 | 0.35 | 0.31 | 82 | 1016.8 |
| 20260505171403 | 59 | 356 | 4.0 | 7.0 | 0.00 | 0.35 | 0.31 | 82 | 1016.8 |
| 20260505171303 | 59 | 2 | 4.0 | 7.0 | 0.00 | 0.35 | 0.31 | 83 | 1016.9 |
| 20260505171203 | 59 | 3 | 4.0 | 7.0 | 0.00 | 0.35 | 0.31 | 83 | 1016.9 |
| 20260505171103 | 58 | 4 | 3.0 | 7.0 | 0.00 | 0.35 | 0.31 | 82 | 1017.0 |
| 20260505171003 | 58 | 4 | 3.0 | 7.0 | 0.00 | 0.35 | 0.31 | 83 | 1017.1 |
| 20260505170903 | 58 | 6 | 3.0 | 7.0 | 0.00 | 0.35 | 0.31 | 83 | 1017.0 |
| 20260505170803 | 58 | 8 | 4.0 | 7.0 | 0.00 | 0.35 | 0.31 | 83 | 1017.1 |
| 20260505170724 | 58 | 8 | 4.0 | 7.0 | 0.00 | 0.35 | 0.31 | 83 | 1017.1 |
| 20260505170603 | 58 | 8 | 4.0 | 7.0 | 0.00 | 0.35 | 0.31 | 82 | 1017.0 |
| 20260505170524 | 58 | 4 | 4.0 | 7.0 | 0.00 | 0.35 | 0.31 | 82 | 1017.0 |
| 20260505170403 | 59 | 6 | 4.0 | 7.0 | 0.00 | 0.35 | 0.31 | 82 | 1017.0 |
| 20260505170303 | 59 | 4 | 3.0 | 7.0 | 0.00 | 0.35 | 0.31 | 82 | 1017.0 |
| 20260505170203 | 59 | 360 | 3.0 | 7.0 | 0.00 | 0.35 | 0.31 | 82 | 1017.0 |
| 20260505170003 | 58 | 358 | 4.0 | 7.0 | 0.00 | 0.35 | 0.31 | 82 | 1016.8 |
| 20260505165903 | 58 | 357 | 4.0 | 7.0 | 0.00 | 0.35 | 0.31 | 82 | 1017.0 |
| 20260505165803 | 58 | 358 | 4.0 | 7.0 | 0.00 | 0.35 | 0.31 | 81 | 1016.9 |
| 20260505165703 | 58 | 357 | 3.0 | 7.0 | 0.00 | 0.35 | 0.31 | 81 | 1016.9 |
| 20260505165603 | 58 | 357 | 4.0 | 7.0 | 0.00 | 0.35 | 0.31 | 80 | 1016.9 |
| 20260505165524 | 58 | 357 | 4.0 | 7.0 | 0.00 | 0.35 | 0.31 | 80 | 1016.9 |
| 20260505165404 | 58 | 4 | 4.0 | 7.0 | 0.00 | 0.35 | 0.31 | 79 | 1016.9 |
| 20260505165305 | 58 | 5 | 4.0 | 7.0 | 0.00 | 0.35 | 0.31 | 78 | 1017.0 |
| 20260505165203 | 58 | 5 | 4.0 | 7.0 | 0.00 | 0.35 | 0.31 | 78 | 1017.0 |
| 20260505165124 | 58 | 6 | 4.0 | 7.0 | 0.00 | 0.35 | 0.31 | 78 | 1016.9 |
| 20260505165003 | 59 | 6 | 3.0 | 7.0 | 0.00 | 0.35 | 0.31 | 77 | 1016.9 |
| 20260505164903 | 59 | 6 | 3.0 | 7.0 | 0.00 | 0.35 | 0.31 | 77 | 1016.9 |
| 20260505164803 | 59 | 5 | 4.0 | 7.0 | 0.00 | 0.35 | 0.31 | 77 | 1017.0 |
| 20260505164703 | 59 | 9 | 3.0 | 7.0 | 0.00 | 0.35 | 0.31 | 78 | 1016.7 |
| 20260505164624 | 59 | 9 | 3.0 | 7.0 | 0.00 | 0.35 | 0.31 | 77 | 1016.7 |
| 20260505164503 | 59 | 9 | 3.0 | 7.0 | 0.00 | 0.35 | 0.31 | 77 | 1016.9 |
| 20260505164403 | 59 | 11 | 3.0 | 7.0 | 0.00 | 0.35 | 0.31 | 78 | 1016.8 |
| 20260505164324 | 60 | 13 | 4.0 | 8.0 | 0.00 | 0.35 | 0.31 | 78 | 1016.7 |
| 20260505164203 | 60 | 13 | 4.0 | 8.0 | 0.00 | 0.35 | 0.31 | 78 | 1016.8 |
| 20260505164103 | 60 | 8 | 4.0 | 10.0 | 0.00 | 0.35 | 0.31 | 79 | 1016.6 |
| 20260505164024 | 60 | 10 | 4.0 | 10.0 | 0.00 | 0.35 | 0.31 | 79 | 1017.0 |
| 20260505163903 | 60 | 7 | 4.0 | 10.0 | 0.00 | 0.35 | 0.31 | 78 | 1016.8 |
| 20260505163803 | 60 | 8 | 4.0 | 10.0 | 0.00 | 0.35 | 0.31 | 78 | 1016.9 |
| 20260505163703 | 60 | 4 | 4.0 | 10.0 | 0.00 | 0.35 | 0.31 | 77 | 1016.7 |
| 20260505163603 | 60 | 4 | 4.0 | 10.0 | 0.00 | 0.35 | 0.31 | 77 | 1016.7 |
| 20260505163503 | 60 | 4 | 4.0 | 10.0 | 0.00 | 0.35 | 0.31 | 77 | 1016.7 |
| 20260505163403 | 60 | 4 | 4.0 | 10.0 | 0.00 | 0.35 | 0.31 | 77 | 1016.7 |
| 20260505163324 | 60 | 3 | 5.0 | 10.0 | 0.00 | 0.35 | 0.31 | 75 | 1016.8 |
| 20260505163203 | 61 | 360 | 4.0 | 10.0 | 0.00 | 0.35 | 0.31 | 75 | 1016.8 |
| 20260505163124 | 61 | 357 | 4.0 | 10.0 | 0.00 | 0.35 | 0.31 | 75 | 1016.8 |
| 20260505163024 | 61 | 1 | 4.0 | 8.0 | 0.00 | 0.35 | 0.31 | 76 | 1016.7 |
| 20260505162903 | 61 | 2 | 4.0 | 8.0 | 0.00 | 0.35 | 0.31 | 76 | 1016.8 |
| 20260505162803 | 61 | 1 | 4.0 | 8.0 | 0.00 | 0.35 | 0.31 | 76 | 1016.6 |
| 20260505162703 | 61 | 352 | 4.0 | 8.0 | 0.00 | 0.35 | 0.31 | 76 | 1016.8 |
| 20260505162603 | 61 | 347 | 4.0 | 8.0 | 0.00 | 0.35 | 0.31 | 76 | 1016.7 |
| 20260505162503 | 61 | 343 | 4.0 | 8.0 | 0.00 | 0.35 | 0.31 | 76 | 1016.8 |
| 20260505162403 | 61 | 342 | 3.0 | 7.0 | 0.00 | 0.35 | 0.31 | 75 | 1016.8 |
| 20260505162324 | 61 | 342 | 3.0 | 7.0 | 0.00 | 0.35 | 0.31 | 75 | 1016.8 |
| 20260505162203 | 63 | 343 | 3.0 | 7.0 | 0.00 | 0.35 | 0.31 | 73 | 1016.6 |
| 20260505162103 | 63 | 343 | 3.0 | 8.0 | 0.00 | 0.35 | 0.31 | 73 | 1016.8 |
| 20260505162024 | 63 | 343 | 3.0 | 8.0 | 0.00 | 0.35 | 0.31 | 73 | 1016.8 |
| 20260505161924 | 63 | 340 | 3.0 | 8.0 | 0.00 | 0.35 | 0.31 | 74 | 1016.9 |
| 20260505161803 | 63 | 342 | 3.0 | 9.0 | 0.00 | 0.35 | 0.31 | 74 | 1016.7 |
| 20260505161703 | 63 | 343 | 3.0 | 9.0 | 0.00 | 0.35 | 0.31 | 71 | 1016.7 |
| 20260505161603 | 62 | 353 | 3.0 | 9.0 | 0.00 | 0.35 | 0.31 | 72 | 1016.8 |
| 20260505161503 | 62 | 360 | 3.0 | 9.0 | 0.00 | 0.35 | 0.31 | 72 | 1016.6 |
| 20260505161403 | 62 | 360 | 3.0 | 9.0 | 0.00 | 0.35 | 0.31 | 72 | 1016.8 |
| 20260505161303 | 62 | 358 | 3.0 | 9.0 | 0.00 | 0.35 | 0.31 | 74 | 1016.7 |
| 20260505161224 | 61 | 352 | 3.0 | 9.0 | 0.00 | 0.35 | 0.31 | 73 | 1017.0 |
| 20260505161103 | 61 | 349 | 3.0 | 9.0 | 0.00 | 0.35 | 0.31 | 73 | 1016.8 |
| 20260505161003 | 62 | 340 | 3.0 | 9.0 | 0.00 | 0.35 | 0.31 | 74 | 1016.8 |
| 20260505160903 | 62 | 338 | 4.0 | 9.0 | 0.00 | 0.35 | 0.31 | 74 | 1016.7 |
| 20260505160803 | 61 | 331 | 3.0 | 8.0 | 0.00 | 0.35 | 0.31 | 75 | 1016.9 |
| 20260505160703 | 61 | 332 | 3.0 | 8.0 | 0.00 | 0.35 | 0.31 | 75 | 1016.8 |
| 20260505160603 | 61 | 332 | 3.0 | 8.0 | 0.00 | 0.35 | 0.31 | 75 | 1016.7 |
| 20260505160503 | 61 | 324 | 3.0 | 8.0 | 0.00 | 0.35 | 0.31 | 74 | 1016.9 |
| 20260505160403 | 62 | 322 | 3.0 | 8.0 | 0.00 | 0.35 | 0.31 | 75 | 1016.8 |
| 20260505160324 | 62 | 322 | 3.0 | 8.0 | 0.00 | 0.35 | 0.31 | 75 | 1016.8 |
| 20260505160203 | 62 | 322 | 3.0 | 8.0 | 0.00 | 0.35 | 0.31 | 74 | 1016.6 |
| 20260505153324 | 63 | 343 | 3.0 | 10.0 | 0.00 | 0.35 | 0.31 | 76 | 1016.6 |
| 20260505153203 | 63 | 339 | 2.0 | 6.0 | 0.00 | 0.35 | 0.31 | 76 | 1016.9 |
| 20260505153103 | 63 | 339 | 2.0 | 6.0 | 0.00 | 0.35 | 0.31 | 76 | 1016.9 |
| 20260505153003 | 63 | 334 | 3.0 | 6.0 | 0.00 | 0.35 | 0.31 | 75 | 1016.7 |
| 20260505152903 | 63 | 337 | 3.0 | 6.0 | 0.00 | 0.35 | 0.31 | 75 | 1016.7 |
| 20260505152803 | 63 | 337 | 3.0 | 6.0 | 0.00 | 0.35 | 0.31 | 75 | 1016.8 |
| 20260505152703 | 63 | 334 | 3.0 | 6.0 | 0.00 | 0.35 | 0.31 | 75 | 1016.8 |
| 20260505152603 | 63 | 327 | 3.0 | 6.0 | 0.00 | 0.35 | 0.31 | 74 | 1016.8 |
| 20260505152503 | 62 | 325 | 3.0 | 6.0 | 0.00 | 0.35 | 0.31 | 75 | 1016.6 |
| 20260505152403 | 62 | 331 | 3.0 | 6.0 | 0.00 | 0.35 | 0.31 | 76 | 1016.6 |
| 20260505152305 | 62 | 328 | 3.0 | 6.0 | 0.00 | 0.35 | 0.31 | 74 | 1016.9 |
| 20260505152203 | 62 | 325 | 3.0 | 6.0 | 0.00 | 0.35 | 0.31 | 76 | 1016.7 |
| 20260505152103 | 62 | 316 | 3.0 | 8.0 | 0.00 | 0.35 | 0.31 | 75 | 1016.9 |
| 20260505152003 | 62 | 316 | 3.0 | 8.0 | 0.00 | 0.35 | 0.31 | 75 | 1016.6 |
| 20260505151903 | 62 | 317 | 3.0 | 8.0 | 0.00 | 0.35 | 0.31 | 75 | 1016.8 |
| 20260505151824 | 62 | 317 | 3.0 | 8.0 | 0.00 | 0.35 | 0.31 | 75 | 1016.8 |
| 20260505151704 | 63 | 322 | 3.0 | 8.0 | 0.00 | 0.35 | 0.31 | 76 | 1016.8 |
| 20260505151603 | 62 | 325 | 3.0 | 8.0 | 0.00 | 0.35 | 0.31 | 76 | 1016.8 |
| 20260505151524 | 62 | 325 | 3.0 | 8.0 | 0.00 | 0.35 | 0.31 | 76 | 1016.8 |
| 20260505151403 | 62 | 326 | 3.0 | 8.0 | 0.00 | 0.35 | 0.31 | 77 | 1016.8 |
| 20260505151303 | 62 | 321 | 3.0 | 8.0 | 0.00 | 0.35 | 0.31 | 78 | 1016.9 |
| 20260505151203 | 61 | 328 | 3.0 | 8.0 | 0.00 | 0.35 | 0.31 | 77 | 1017.0 |
| 20260505151104 | 61 | 328 | 3.0 | 8.0 | 0.00 | 0.35 | 0.31 | 77 | 1017.0 |
| 20260505151003 | 60 | 340 | 2.0 | 6.0 | 0.00 | 0.35 | 0.31 | 80 | 1016.9 |
| 20260505150903 | 60 | 345 | 2.0 | 6.0 | 0.00 | 0.35 | 0.31 | 79 | 1016.8 |
| 20260505150804 | 60 | 351 | 2.0 | 4.0 | 0.00 | 0.35 | 0.31 | 78 | 1016.6 |
| 20260505150703 | 61 | 353 | 2.0 | 4.0 | 0.00 | 0.35 | 0.31 | 77 | 1016.9 |
| 20260505150603 | 61 | 355 | 3.0 | 6.0 | 0.00 | 0.35 | 0.31 | 77 | 1016.9 |
| 20260505150524 | 62 | 356 | 3.0 | 6.0 | 0.00 | 0.35 | 0.31 | 77 | 1016.8 |
| 20260505150424 | 62 | 358 | 3.0 | 6.0 | 0.00 | 0.35 | 0.31 | 77 | 1016.9 |
| 20260505150303 | 62 | 1 | 3.0 | 6.0 | 0.00 | 0.35 | 0.31 | 79 | 1016.7 |
| 20260505150224 | 62 | 1 | 3.0 | 6.0 | 0.00 | 0.35 | 0.31 | 79 | 1016.7 |
| 20260505140603 | 61 | 354 | 3.0 | 8.0 | 0.00 | 0.35 | 0.31 | 75 | 1016.9 |
| 20260505140503 | 62 | 351 | 3.0 | 8.0 | 0.00 | 0.35 | 0.31 | 75 | 1016.8 |
| 20260505140403 | 62 | 349 | 3.0 | 8.0 | 0.00 | 0.35 | 0.31 | 76 | 1016.9 |
| 20260505140303 | 62 | 349 | 3.0 | 8.0 | 0.00 | 0.35 | 0.31 | 76 | 1016.9 |
| 20260505140203 | 62 | 345 | 3.0 | 7.0 | 0.00 | 0.35 | 0.31 | 77 | 1016.8 |